Wetterdaten: Freitag, 25.11.2022
Datum Zeit Temp. Aussen Temp. o. S. Temp +5cm Feuchte Auss Luftdruck Regen Sonnenschein Regendauer Solar Windben Empfang
25.11.2022 00:00 6,9 C 6,1 C 3,3 C 92 % 1011,7 hPa 0,0 l/m 0 min 0 min 0 W/m 12,9 km/h (3 Bft) 95,74 %
25.11.2022 00:02 6,9 C 6,1 C 3,3 C 92 % 1011,8 hPa 0,0 l/m 0 min 0 min 0 W/m 6,4 km/h (2 Bft) 97,22 %
25.11.2022 00:04 6,9 C 6,1 C 3,3 C 92 % 1011,7 hPa 0,0 l/m 0 min 0 min 0 W/m 16,1 km/h (3 Bft) 96,00 %
25.11.2022 00:08 6,8 C 6,1 C 3,3 C 92 % 1011,8 hPa 0,0 l/m 0 min 0 min 0 W/m 16,1 km/h (3 Bft) 94,95 %
25.11.2022 00:10 6,8 C 6,1 C 3,3 C 92 % 1011,8 hPa 0,0 l/m 0 min 0 min 0 W/m 12,9 km/h (3 Bft) 95,74 %
25.11.2022 00:12 6,8 C 6,1 C 3,3 C 92 % 1011,8 hPa 0,0 l/m 0 min 0 min 0 W/m 12,9 km/h (3 Bft) 95,74 %
25.11.2022 00:14 6,8 C 6,1 C 3,3 C 92 % 1011,8 hPa 0,0 l/m 0 min 0 min 0 W/m 6,4 km/h (2 Bft) 97,87 %
25.11.2022 00:16 6,8 C 6,1 C 2,8 C 92 % 1011,7 hPa 0,0 l/m 0 min 0 min 0 W/m 6,4 km/h (2 Bft) 97,87 %
25.11.2022 00:18 6,8 C 6,1 C 2,8 C 92 % 1011,8 hPa 0,0 l/m 0 min 0 min 0 W/m 12,9 km/h (3 Bft) 97,83 %
25.11.2022 00:20 6,8 C 6,1 C 2,8 C 92 % 1011,7 hPa 0,0 l/m 0 min 0 min 0 W/m 16,1 km/h (3 Bft) 97,87 %
25.11.2022 00:22 6,8 C 6,1 C 3,3 C 92 % 1011,8 hPa 0,0 l/m 0 min 0 min 0 W/m 16,1 km/h (3 Bft) 93,62 %
25.11.2022 00:24 6,8 C 6,1 C 3,3 C 92 % 1011,7 hPa 0,0 l/m 0 min 0 min 0 W/m 12,9 km/h (3 Bft) 97,87 %
25.11.2022 00:26 6,7 C 6,1 C 3,3 C 92 % 1011,7 hPa 0,0 l/m 0 min 0 min 0 W/m 16,1 km/h (3 Bft) 95,74 %
25.11.2022 00:28 6,8 C 6,1 C 3,3 C 92 % 1011,8 hPa 0,0 l/m 0 min 0 min 0 W/m 16,1 km/h (3 Bft) 97,87 %
25.11.2022 00:30 6,8 C 6,1 C 3,3 C 92 % 1011,8 hPa 0,0 l/m 0 min 0 min 0 W/m 12,9 km/h (3 Bft) 95,65 %
25.11.2022 00:32 6,8 C 6,1 C 3,3 C 92 % 1011,7 hPa 0,0 l/m 0 min 0 min 0 W/m 16,1 km/h (3 Bft) 95,74 %
25.11.2022 00:34 6,8 C 6,1 C 3,3 C 92 % 1011,8 hPa 0,0 l/m 0 min 0 min 0 W/m 16,1 km/h (3 Bft) 97,87 %
25.11.2022 00:36 6,8 C 6,1 C 3,3 C 92 % 1011,8 hPa 0,0 l/m 0 min 0 min 0 W/m 9,7 km/h (2 Bft) 95,74 %
25.11.2022 00:38 6,8 C 6,1 C 3,3 C 92 % 1011,7 hPa 0,0 l/m 0 min 0 min 0 W/m 9,7 km/h (2 Bft) 100,00 %
25.11.2022 00:40 6,9 C 6,1 C 3,3 C 92 % 1011,7 hPa 0,0 l/m 0 min 0 min 0 W/m 9,7 km/h (2 Bft) 100,00 %
25.11.2022 00:42 6,9 C 6,1 C 3,3 C 93 % 1011,7 hPa 0,0 l/m 0 min 0 min 0 W/m 16,1 km/h (3 Bft) 100,00 %
25.11.2022 00:44 6,9 C 6,1 C 3,3 C 93 % 1011,7 hPa 0,0 l/m 0 min 0 min 0 W/m 9,7 km/h (2 Bft) 100,00 %
25.11.2022 00:46 6,9 C 6,1 C 3,3 C 93 % 1011,7 hPa 0,0 l/m 0 min 0 min 0 W/m 12,9 km/h (3 Bft) 96,00 %
25.11.2022 00:48 6,9 C 6,1 C 3,3 C 93 % 1011,6 hPa 0,0 l/m 0 min 0 min 0 W/m 16,1 km/h (3 Bft) 100,00 %
25.11.2022 00:50 6,9 C 6,1 C 3,3 C 93 % 1011,6 hPa 0,0 l/m 0 min 0 min 0 W/m 16,1 km/h (3 Bft) 95,74 %
25.11.2022 00:52 7,0 C 6,1 C 3,3 C 93 % 1011,6 hPa 0,0 l/m 0 min 0 min 0 W/m 12,9 km/h (3 Bft) 95,74 %
25.11.2022 00:54 7,0 C 6,1 C 3,3 C 93 % 1011,5 hPa 0,0 l/m 0 min 0 min 0 W/m 16,1 km/h (3 Bft) 97,96 %
25.11.2022 00:56 7,0 C 6,7 C 3,3 C 93 % 1011,6 hPa 0,0 l/m 0 min 0 min 0 W/m 16,1 km/h (3 Bft) 95,74 %
25.11.2022 00:58 7,0 C 6,1 C 3,3 C 92 % 1011,7 hPa 0,0 l/m 0 min 0 min 0 W/m 6,4 km/h (2 Bft) 97,87 %
25.11.2022 01:00 7,0 C 6,1 C 3,3 C 92 % 1011,6 hPa 0,0 l/m 0 min 0 min 0 W/m 16,1 km/h (3 Bft) 97,87 %
25.11.2022 01:02 7,0 C 6,1 C 3,3 C 92 % 1011,6 hPa 0,0 l/m 0 min 0 min 0 W/m 9,7 km/h (2 Bft) 95,74 %
25.11.2022 01:04 7,0 C 6,1 C 3,3 C 92 % 1011,6 hPa 0,0 l/m 0 min 0 min 0 W/m 19,3 km/h (3 Bft) 97,87 %
25.11.2022 01:06 7,1 C 6,7 C 3,3 C 93 % 1011,6 hPa 0,0 l/m 0 min 0 min 0 W/m 12,9 km/h (3 Bft) 97,83 %
25.11.2022 01:08 7,1 C 6,7 C 3,3 C 93 % 1011,6 hPa 0,0 l/m 0 min 0 min 0 W/m 22,5 km/h (4 Bft) 97,87 %
25.11.2022 01:10 7,1 C 6,7 C 3,3 C 93 % 1011,5 hPa 0,0 l/m 0 min 0 min 0 W/m 16,1 km/h (3 Bft) 97,87 %
25.11.2022 01:12 7,1 C 6,1 C 3,3 C 93 % 1011,5 hPa 0,0 l/m 0 min 0 min 0 W/m 16,1 km/h (3 Bft) 97,87 %
25.11.2022 01:14 7,1 C 6,1 C 3,3 C 93 % 1011,5 hPa 0,0 l/m 0 min 0 min 0 W/m 12,9 km/h (3 Bft) 97,87 %
25.11.2022 01:16 7,1 C 6,1 C 3,3 C 93 % 1011,5 hPa 0,0 l/m 0 min 0 min 0 W/m 16,1 km/h (3 Bft) 97,87 %
25.11.2022 01:18 7,1 C 6,1 C 3,3 C 93 % 1011,6 hPa 0,0 l/m 0 min 0 min 0 W/m 16,1 km/h (3 Bft) 97,83 %
25.11.2022 01:20 7,1 C 6,1 C 3,3 C 93 % 1011,5 hPa 0,0 l/m 0 min 0 min 0 W/m 16,1 km/h (3 Bft) 93,62 %
25.11.2022 01:22 7,1 C 6,1 C 3,3 C 93 % 1011,5 hPa 0,0 l/m 0 min 0 min 0 W/m 12,9 km/h (3 Bft) 97,87 %
25.11.2022 01:24 7,1 C 6,1 C 3,3 C 93 % 1011,5 hPa 0,0 l/m 0 min 0 min 0 W/m 16,1 km/h (3 Bft) 97,87 %
25.11.2022 01:26 7,1 C 6,1 C 3,3 C 93 % 1011,4 hPa 0,0 l/m 0 min 0 min 0 W/m 19,3 km/h (3 Bft) 97,87 %
25.11.2022 01:28 7,1 C 6,7 C 3,3 C 93 % 1011,4 hPa 0,0 l/m 0 min 0 min 0 W/m 16,1 km/h (3 Bft) 100,00 %
25.11.2022 01:30 7,1 C 6,1 C 3,3 C 93 % 1011,4 hPa 0,0 l/m 0 min 0 min 0 W/m 6,4 km/h (2 Bft) 100,00 %
25.11.2022 01:32 7,1 C 6,1 C 3,3 C 93 % 1011,3 hPa 0,0 l/m 0 min 0 min 0 W/m 12,9 km/h (3 Bft) 100,00 %
25.11.2022 01:34 7,1 C 6,7 C 3,3 C 93 % 1011,3 hPa 0,0 l/m 0 min 0 min 0 W/m 16,1 km/h (3 Bft) 100,00 %
25.11.2022 01:36 7,1 C 6,7 C 3,3 C 93 % 1011,3 hPa 0,0 l/m 0 min 0 min 0 W/m 12,9 km/h (3 Bft) 97,87 %
25.11.2022 01:38 7,1 C 6,7 C 3,3 C 93 % 1011,2 hPa 0,0 l/m 0 min 0 min 0 W/m 19,3 km/h (3 Bft) 100,00 %
25.11.2022 01:40 7,1 C 6,7 C 3,3 C 93 % 1011,2 hPa 0,0 l/m 0 min 0 min 0 W/m 16,1 km/h (3 Bft) 97,87 %
25.11.2022 01:42 7,1 C 6,7 C 3,3 C 93 % 1011,2 hPa 0,0 l/m 0 min 0 min 0 W/m 16,1 km/h (3 Bft) 100,00 %
25.11.2022 01:44 7,2 C 6,7 C 3,3 C 93 % 1011,1 hPa 0,0 l/m 0 min 0 min 0 W/m 16,1 km/h (3 Bft) 100,00 %
25.11.2022 01:46 7,2 C 6,7 C 3,9 C 93 % 1011,1 hPa 0,0 l/m 0 min 0 min 0 W/m 19,3 km/h (3 Bft) 100,00 %
25.11.2022 01:48 7,2 C 6,7 C 3,9 C 93 % 1011,2 hPa 0,0 l/m 0 min 0 min 0 W/m 19,3 km/h (3 Bft) 100,00 %
25.11.2022 01:50 7,2 C 6,7 C 3,9 C 93 % 1011,1 hPa 0,0 l/m 0 min 0 min 0 W/m 16,1 km/h (3 Bft) 100,00 %
25.11.2022 01:52 7,2 C 6,7 C 3,9 C 93 % 1011,1 hPa 0,0 l/m 0 min 0 min 0 W/m 22,5 km/h (4 Bft) 100,00 %
25.11.2022 01:54 7,2 C 6,7 C 3,9 C 93 % 1011,1 hPa 0,0 l/m 0 min 0 min 0 W/m 12,9 km/h (3 Bft) 100,00 %
25.11.2022 01:56 7,2 C 6,7 C 3,9 C 93 % 1011,2 hPa 0,0 l/m 0 min 0 min 0 W/m 22,5 km/h (4 Bft) 100,00 %
25.11.2022 01:58 7,2 C 6,7 C 3,9 C 93 % 1011,1 hPa 0,0 l/m 0 min 0 min 0 W/m 12,9 km/h (3 Bft) 93,62 %
25.11.2022 02:00 7,3 C 6,7 C 3,9 C 93 % 1011,1 hPa 0,0 l/m 0 min 0 min 0 W/m 16,1 km/h (3 Bft) 97,87 %
25.11.2022 02:02 7,3 C 6,7 C 3,9 C 93 % 1011,1 hPa 0,0 l/m 0 min 0 min 0 W/m 19,3 km/h (3 Bft) 97,87 %
25.11.2022 02:04 7,3 C 6,7 C 3,9 C 93 % 1011,1 hPa 0,0 l/m 0 min 0 min 0 W/m 25,7 km/h (4 Bft) 100,00 %
25.11.2022 02:06 7,3 C 6,7 C 3,9 C 93 % 1011,1 hPa 0,0 l/m 0 min 0 min 0 W/m 16,1 km/h (3 Bft) 100,00 %
25.11.2022 02:08 7,3 C 6,7 C 3,9 C 93 % 1011,1 hPa 0,0 l/m 0 min 0 min 0 W/m 12,9 km/h (3 Bft) 97,87 %
25.11.2022 02:10 7,3 C 6,7 C 3,9 C 93 % 1011,0 hPa 0,0 l/m 0 min 0 min 0 W/m 22,5 km/h (4 Bft) 97,87 %
25.11.2022 02:12 7,3 C 6,7 C 3,9 C 93 % 1011,0 hPa 0,0 l/m 0 min 0 min 0 W/m 19,3 km/h (3 Bft) 97,87 %
25.11.2022 02:14 7,3 C 6,7 C 3,9 C 93 % 1011,0 hPa 0,0 l/m 0 min 0 min 0 W/m 22,5 km/h (4 Bft) 97,87 %
25.11.2022 02:16 7,4 C 6,7 C 3,9 C 93 % 1011,0 hPa 0,0 l/m 0 min 0 min 0 W/m 16,1 km/h (3 Bft) 93,62 %
25.11.2022 02:18 7,4 C 6,7 C 3,9 C 93 % 1010,9 hPa 0,0 l/m 0 min 0 min 0 W/m 16,1 km/h (3 Bft) 97,83 %
25.11.2022 02:20 7,4 C 6,7 C 3,9 C 93 % 1011,0 hPa 0,0 l/m 0 min 0 min 0 W/m 19,3 km/h (3 Bft) 95,74 %
25.11.2022 02:22 7,4 C 6,7 C 3,9 C 93 % 1011,0 hPa 0,0 l/m 0 min 0 min 0 W/m 16,1 km/h (3 Bft) 97,87 %
25.11.2022 02:24 7,4 C 6,7 C 3,9 C 93 % 1011,0 hPa 0,0 l/m 0 min 0 min 0 W/m 16,1 km/h (3 Bft) 95,74 %
25.11.2022 02:26 7,4 C 6,7 C 3,9 C 93 % 1011,0 hPa 0,0 l/m 0 min 0 min 0 W/m 19,3 km/h (3 Bft) 93,62 %
25.11.2022 02:28 7,5 C 6,7 C 3,9 C 93 % 1011,0 hPa 0,0 l/m 0 min 0 min 0 W/m 25,7 km/h (4 Bft) 95,74 %
25.11.2022 02:30 7,5 C 6,7 C 3,9 C 93 % 1011,0 hPa 0,0 l/m 0 min 0 min 0 W/m 19,3 km/h (3 Bft) 91,30 %
25.11.2022 02:32 7,5 C 6,7 C 3,9 C 93 % 1011,0 hPa 0,0 l/m 0 min 0 min 0 W/m 16,1 km/h (3 Bft) 95,74 %
25.11.2022 02:34 7,5 C 6,7 C 3,9 C 93 % 1011,1 hPa 0,0 l/m 0 min 0 min 0 W/m 19,3 km/h (3 Bft) 95,74 %
25.11.2022 02:36 7,6 C 6,7 C 3,9 C 93 % 1011,0 hPa 0,0 l/m 0 min 0 min 0 W/m 16,1 km/h (3 Bft) 95,74 %
25.11.2022 02:38 7,6 C 6,7 C 3,9 C 93 % 1011,0 hPa 0,0 l/m 0 min 0 min 0 W/m 25,7 km/h (4 Bft) 95,74 %
25.11.2022 02:40 7,6 C 6,7 C 3,9 C 93 % 1011,0 hPa 0,0 l/m 0 min 0 min 0 W/m 22,5 km/h (4 Bft) 93,62 %
25.11.2022 02:42 7,6 C 6,7 C 3,9 C 93 % 1011,0 hPa 0,0 l/m 0 min 0 min 0 W/m 22,5 km/h (4 Bft) 93,48 %
25.11.2022 02:44 7,6 C 6,7 C 3,9 C 93 % 1011,0 hPa 0,0 l/m 0 min 0 min 0 W/m 16,1 km/h (3 Bft) 95,74 %
25.11.2022 02:46 7,6 C 6,7 C 3,9 C 93 % 1011,0 hPa 0,0 l/m 0 min 0 min 0 W/m 16,1 km/h (3 Bft) 93,62 %
25.11.2022 02:48 7,6 C 6,7 C 3,9 C 93 % 1011,0 hPa 0,0 l/m 0 min 0 min 0 W/m 19,3 km/h (3 Bft) 93,62 %
25.11.2022 02:50 7,6 C 7,2 C 3,9 C 93 % 1011,0 hPa 0,0 l/m 0 min 0 min 0 W/m 19,3 km/h (3 Bft) 93,62 %
25.11.2022 02:52 7,6 C 6,7 C 3,9 C 93 % 1011,0 hPa 0,0 l/m 0 min 0 min 0 W/m 19,3 km/h (3 Bft) 93,62 %
25.11.2022 02:54 7,6 C 7,2 C 3,9 C 93 % 1011,0 hPa 0,0 l/m 0 min 0 min 0 W/m 22,5 km/h (4 Bft) 91,30 %
25.11.2022 02:56 7,6 C 7,2 C 3,9 C 93 % 1011,0 hPa 0,0 l/m 0 min 0 min 0 W/m 22,5 km/h (4 Bft) 93,62 %
25.11.2022 02:58 7,6 C 7,2 C 3,9 C 93 % 1010,9 hPa 0,0 l/m 0 min 0 min 0 W/m 19,3 km/h (3 Bft) 91,49 %
25.11.2022 03:00 7,6 C 7,2 C 3,9 C 93 % 1010,9 hPa 0,0 l/m 0 min 0 min 0 W/m 19,3 km/h (3 Bft) 91,49 %
25.11.2022 03:02 7,6 C 7,2 C 3,9 C 93 % 1011,0 hPa 0,0 l/m 0 min 0 min 0 W/m 16,1 km/h (3 Bft) 91,49 %
25.11.2022 03:04 7,6 C 7,2 C 3,9 C 93 % 1010,9 hPa 0,0 l/m 0 min 0 min 0 W/m 25,7 km/h (4 Bft) 95,92 %
25.11.2022 03:06 7,7 C 7,2 C 3,9 C 93 % 1011,0 hPa 0,0 l/m 0 min 0 min 0 W/m 19,3 km/h (3 Bft) 97,83 %
25.11.2022 03:08 7,7 C 7,2 C 3,9 C 93 % 1010,9 hPa 0,0 l/m 0 min 0 min 0 W/m 19,3 km/h (3 Bft) 97,87 %
25.11.2022 03:10 7,7 C 7,2 C 3,9 C 93 % 1010,9 hPa 0,0 l/m 0 min 0 min 0 W/m 22,5 km/h (4 Bft) 97,87 %
25.11.2022 03:12 7,7 C 7,2 C 3,9 C 93 % 1010,9 hPa 0,0 l/m 0 min 0 min 0 W/m 16,1 km/h (3 Bft) 97,83 %
25.11.2022 03:14 7,7 C 7,2 C 4,4 C 93 % 1010,9 hPa 0,0 l/m 0 min 0 min 0 W/m 19,3 km/h (3 Bft) 97,87 %
25.11.2022 03:16 7,7 C 7,2 C 4,4 C 93 % 1011,0 hPa 0,0 l/m 0 min 0 min 0 W/m 16,1 km/h (3 Bft) 97,87 %
25.11.2022 03:18 7,7 C 7,2 C 4,4 C 93 % 1011,0 hPa 0,0 l/m 0 min 0 min 0 W/m 19,3 km/h (3 Bft) 100,00 %
25.11.2022 03:20 7,7 C 7,2 C 4,4 C 93 % 1010,9 hPa 0,0 l/m 0 min 0 min 0 W/m 12,9 km/h (3 Bft) 97,87 %
25.11.2022 03:22 7,7 C 7,2 C 4,4 C 93 % 1010,9 hPa 0,0 l/m 0 min 0 min 0 W/m 16,1 km/h (3 Bft) 97,87 %
25.11.2022 03:24 7,7 C 7,2 C 4,4 C 93 % 1010,9 hPa 0,0 l/m 0 min 0 min 0 W/m 16,1 km/h (3 Bft) 100,00 %
25.11.2022 03:26 7,7 C 7,2 C 4,4 C 93 % 1010,9 hPa 0,0 l/m 0 min 0 min 0 W/m 16,1 km/h (3 Bft) 100,00 %
25.11.2022 03:28 7,7 C 7,2 C 4,4 C 93 % 1011,0 hPa 0,0 l/m 0 min 0 min 0 W/m 22,5 km/h (4 Bft) 100,00 %
25.11.2022 03:30 7,7 C 7,2 C 4,4 C 93 % 1011,1 hPa 0,0 l/m 0 min 0 min 0 W/m 19,3 km/h (3 Bft) 97,83 %
25.11.2022 03:32 7,7 C 7,2 C 4,4 C 93 % 1011,0 hPa 0,0 l/m 0 min 0 min 0 W/m 12,9 km/h (3 Bft) 100,00 %
25.11.2022 03:34 7,8 C 7,2 C 4,4 C 93 % 1011,1 hPa 0,0 l/m 0 min 0 min 0 W/m 12,9 km/h (3 Bft) 100,00 %
25.11.2022 03:36 7,8 C 7,2 C 4,4 C 93 % 1011,1 hPa 0,0 l/m 0 min 0 min 0 W/m 19,3 km/h (3 Bft) 100,00 %
25.11.2022 03:38 7,8 C 7,2 C 4,4 C 93 % 1011,0 hPa 0,0 l/m 0 min 0 min 0 W/m 22,5 km/h (4 Bft) 97,87 %
25.11.2022 03:40 7,8 C 7,2 C 4,4 C 93 % 1011,1 hPa 0,0 l/m 0 min 0 min 0 W/m 19,3 km/h (3 Bft) 100,00 %
25.11.2022 03:42 7,8 C 7,2 C 4,4 C 93 % 1011,1 hPa 0,0 l/m 0 min 0 min 0 W/m 16,1 km/h (3 Bft) 95,65 %
25.11.2022 03:44 7,8 C 7,2 C 4,4 C 93 % 1011,1 hPa 0,0 l/m 0 min 0 min 0 W/m 19,3 km/h (3 Bft) 100,00 %
25.11.2022 03:46 7,8 C 7,2 C 4,4 C 93 % 1011,1 hPa 0,0 l/m 0 min 0 min 0 W/m 12,9 km/h (3 Bft) 97,87 %
25.11.2022 03:48 7,8 C 7,2 C 4,4 C 93 % 1011,1 hPa 0,0 l/m 0 min 0 min 0 W/m 19,3 km/h (3 Bft) 100,00 %
25.11.2022 03:50 7,9 C 7,2 C 4,4 C 93 % 1011,1 hPa 0,0 l/m 0 min 0 min 0 W/m 19,3 km/h (3 Bft) 100,00 %
25.11.2022 03:52 7,9 C 7,2 C 4,4 C 93 % 1011,1 hPa 0,0 l/m 0 min 0 min 0 W/m 16,1 km/h (3 Bft) 97,87 %
25.11.2022 03:54 7,9 C 7,2 C 4,4 C 93 % 1011,1 hPa 0,0 l/m 0 min 0 min 0 W/m 12,9 km/h (3 Bft) 100,00 %
25.11.2022 03:56 7,9 C 7,2 C 4,4 C 93 % 1011,1 hPa 0,0 l/m 0 min 0 min 0 W/m 16,1 km/h (3 Bft) 100,00 %
25.11.2022 03:58 7,9 C 7,2 C 4,4 C 93 % 1011,1 hPa 0,0 l/m 0 min 0 min 0 W/m 16,1 km/h (3 Bft) 100,00 %
25.11.2022 04:00 7,9 C 7,2 C 4,4 C 93 % 1011,1 hPa 0,0 l/m 0 min 0 min 0 W/m 16,1 km/h (3 Bft) 100,00 %
25.11.2022 04:02 7,9 C 7,2 C 4,4 C 93 % 1011,2 hPa 0,0 l/m 0 min 0 min 0 W/m 19,3 km/h (3 Bft) 100,00 %
25.11.2022 04:04 8,0 C 7,2 C 4,4 C 93 % 1011,1 hPa 0,0 l/m 0 min 0 min 0 W/m 19,3 km/h (3 Bft) 95,74 %
25.11.2022 04:06 8,0 C 7,2 C 4,4 C 93 % 1011,1 hPa 0,0 l/m 0 min 0 min 0 W/m 19,3 km/h (3 Bft) 96,30 %
25.11.2022 04:08 8,0 C 7,2 C 4,4 C 93 % 1011,2 hPa 0,0 l/m 0 min 0 min 0 W/m 16,1 km/h (3 Bft) 97,87 %
25.11.2022 04:10 8,1 C 7,8 C 4,4 C 93 % 1011,2 hPa 0,0 l/m 0 min 0 min 0 W/m 19,3 km/h (3 Bft) 97,87 %
25.11.2022 04:12 8,1 C 7,8 C 4,4 C 93 % 1011,2 hPa 0,0 l/m 0 min 0 min 0 W/m 16,1 km/h (3 Bft) 93,62 %
25.11.2022 04:14 8,1 C 7,8 C 4,4 C 93 % 1011,2 hPa 0,0 l/m 0 min 0 min 0 W/m 22,5 km/h (4 Bft) 100,00 %
25.11.2022 04:16 8,1 C 7,8 C 4,4 C 93 % 1011,2 hPa 0,0 l/m 0 min 0 min 0 W/m 16,1 km/h (3 Bft) 97,87 %
25.11.2022 04:18 8,1 C 7,8 C 4,4 C 93 % 1011,2 hPa 0,0 l/m 0 min 0 min 0 W/m 22,5 km/h (4 Bft) 100,00 %
25.11.2022 04:20 8,1 C 7,8 C 4,4 C 93 % 1011,1 hPa 0,0 l/m 0 min 0 min 0 W/m 22,5 km/h (4 Bft) 100,00 %
25.11.2022 04:22 8,2 C 7,8 C 4,4 C 93 % 1011,1 hPa 0,0 l/m 0 min 0 min 0 W/m 22,5 km/h (4 Bft) 95,74 %
25.11.2022 04:24 8,2 C 7,8 C 4,4 C 93 % 1011,2 hPa 0,0 l/m 0 min 0 min 0 W/m 16,1 km/h (3 Bft) 97,87 %
25.11.2022 04:26 8,2 C 7,8 C 4,4 C 93 % 1011,2 hPa 0,0 l/m 0 min 2 min 0 W/m 19,3 km/h (3 Bft) 100,00 %
25.11.2022 04:28 8,2 C 7,8 C 4,4 C 93 % 1011,2 hPa 0,0 l/m 0 min 2 min 0 W/m 16,1 km/h (3 Bft) 97,83 %
25.11.2022 04:30 8,2 C 7,8 C 4,4 C 93 % 1011,3 hPa 0,0 l/m 0 min 0 min 0 W/m 6,4 km/h (2 Bft) 100,00 %
25.11.2022 04:32 8,2 C 7,2 C 4,4 C 93 % 1011,3 hPa 0,0 l/m 0 min 2 min 0 W/m 6,4 km/h (2 Bft) 97,87 %
25.11.2022 04:34 8,2 C 7,2 C 4,4 C 93 % 1011,3 hPa 0,0 l/m 0 min 2 min 0 W/m 12,9 km/h (3 Bft) 95,74 %
25.11.2022 04:36 8,2 C 7,2 C 4,4 C 93 % 1011,4 hPa 0,0 l/m 0 min 2 min 0 W/m 12,9 km/h (3 Bft) 100,00 %
25.11.2022 04:38 8,2 C 7,2 C 4,4 C 93 % 1011,4 hPa 0,0 l/m 0 min 2 min 0 W/m 16,1 km/h (3 Bft) 97,87 %
25.11.2022 04:40 8,2 C 7,2 C 3,9 C 93 % 1011,5 hPa 0,0 l/m 0 min 2 min 0 W/m 12,9 km/h (3 Bft) 95,65 %
25.11.2022 04:42 8,2 C 7,2 C 3,9 C 93 % 1011,5 hPa 0,0 l/m 0 min 2 min 0 W/m 12,9 km/h (3 Bft) 97,87 %
25.11.2022 04:44 8,2 C 7,2 C 3,9 C 93 % 1011,5 hPa 0,0 l/m 0 min 2 min 0 W/m 6,4 km/h (2 Bft) 97,87 %
25.11.2022 04:46 8,2 C 7,2 C 3,9 C 93 % 1011,5 hPa 0,0 l/m 0 min 2 min 0 W/m 12,9 km/h (3 Bft) 93,62 %
25.11.2022 04:48 8,2 C 7,2 C 3,9 C 93 % 1011,6 hPa 0,2 l/m 0 min 0 min 0 W/m 12,9 km/h (3 Bft) 97,87 %
25.11.2022 04:50 8,2 C 7,2 C 3,9 C 93 % 1011,6 hPa 0,0 l/m 0 min 0 min 0 W/m 12,9 km/h (3 Bft) 95,74 %
25.11.2022 04:52 8,2 C 7,2 C 3,9 C 93 % 1011,6 hPa 0,0 l/m 0 min 0 min 0 W/m 6,4 km/h (2 Bft) 95,65 %
25.11.2022 04:54 8,2 C 7,2 C 3,9 C 93 % 1011,6 hPa 0,0 l/m 0 min 0 min 0 W/m 12,9 km/h (3 Bft) 97,87 %
25.11.2022 04:56 8,2 C 7,2 C 3,9 C 93 % 1011,7 hPa 0,0 l/m 0 min 0 min 0 W/m 3,2 km/h (1 Bft) 93,62 %
25.11.2022 04:58 8,2 C 7,2 C 3,9 C 93 % 1011,8 hPa 0,0 l/m 0 min 0 min 0 W/m 9,7 km/h (2 Bft) 93,62 %
25.11.2022 05:00 8,1 C 7,2 C 3,9 C 93 % 1011,7 hPa 0,0 l/m 0 min 0 min 0 W/m 16,1 km/h (3 Bft) 95,74 %
25.11.2022 05:02 8,1 C 7,2 C 3,9 C 93 % 1011,7 hPa 0,0 l/m 0 min 0 min 0 W/m 6,4 km/h (2 Bft) 95,74 %
25.11.2022 05:04 8,1 C 7,2 C 3,9 C 94 % 1011,7 hPa 0,0 l/m 0 min 0 min 0 W/m 12,9 km/h (3 Bft) 93,62 %
25.11.2022 05:06 8,1 C 7,2 C 3,9 C 94 % 1011,8 hPa 0,0 l/m 0 min 0 min 0 W/m 9,7 km/h (2 Bft) 93,62 %
25.11.2022 05:08 8,1 C 7,2 C 3,9 C 94 % 1011,7 hPa 0,0 l/m 0 min 0 min 0 W/m 3,2 km/h (1 Bft) 91,49 %
25.11.2022 05:10 8,1 C 7,2 C 3,9 C 94 % 1011,8 hPa 0,0 l/m 0 min 0 min 0 W/m 6,4 km/h (2 Bft) 91,49 %
25.11.2022 05:12 8,1 C 7,2 C 3,9 C 94 % 1011,7 hPa 0,0 l/m 0 min 2 min 0 W/m 3,2 km/h (1 Bft) 95,74 %
25.11.2022 05:14 8,1 C 7,2 C 3,9 C 94 % 1011,8 hPa 0,0 l/m 0 min 2 min 0 W/m 6,4 km/h (2 Bft) 95,74 %
25.11.2022 05:16 8,1 C 7,2 C 3,9 C 94 % 1011,8 hPa 0,0 l/m 0 min 2 min 0 W/m 6,4 km/h (2 Bft) 95,65 %
25.11.2022 05:18 8,1 C 7,2 C 3,9 C 94 % 1011,8 hPa 0,0 l/m 0 min 2 min 0 W/m 12,9 km/h (3 Bft) 93,62 %
25.11.2022 05:20 8,1 C 7,2 C 3,9 C 94 % 1011,8 hPa 0,2 l/m 0 min 2 min 0 W/m 0,0 km/h (0 Bft) 95,74 %
25.11.2022 05:22 8,1 C 7,2 C 3,9 C 94 % 1011,8 hPa 0,0 l/m 0 min 2 min 0 W/m 6,4 km/h (2 Bft) 95,74 %
25.11.2022 05:24 8,1 C 7,2 C 3,9 C 94 % 1011,8 hPa 0,0 l/m 0 min 2 min 0 W/m 6,4 km/h (2 Bft) 95,74 %
25.11.2022 05:26 8,1 C 7,2 C 3,9 C 94 % 1011,8 hPa 0,2 l/m 0 min 2 min 0 W/m 6,4 km/h (2 Bft) 95,74 %
25.11.2022 05:28 8,1 C 7,2 C 3,9 C 94 % 1011,8 hPa 0,2 l/m 0 min 2 min 0 W/m 6,4 km/h (2 Bft) 97,83 %
25.11.2022 05:30 8,1 C 7,2 C 3,9 C 94 % 1011,9 hPa 0,0 l/m 0 min 2 min 0 W/m 12,9 km/h (3 Bft) 95,74 %
25.11.2022 05:32 8,1 C 7,2 C 3,9 C 94 % 1011,9 hPa 0,0 l/m 0 min 2 min 0 W/m 3,2 km/h (1 Bft) 95,74 %
25.11.2022 05:34 8,1 C 7,2 C 3,9 C 94 % 1011,9 hPa 0,0 l/m 0 min 2 min 0 W/m 3,2 km/h (1 Bft) 93,62 %
25.11.2022 05:36 8,1 C 7,2 C 3,9 C 94 % 1011,9 hPa 0,0 l/m 0 min 2 min 0 W/m 6,4 km/h (2 Bft) 95,74 %
25.11.2022 05:38 8,1 C 7,2 C 3,9 C 94 % 1011,9 hPa 0,0 l/m 0 min 0 min 0 W/m 0,0 km/h (0 Bft) 97,87 %
25.11.2022 05:40 8,1 C 7,2 C 3,9 C 94 % 1012,0 hPa 0,0 l/m 0 min 0 min 0 W/m 0,0 km/h (0 Bft) 97,83 %
25.11.2022 05:42 8,1 C 7,2 C 3,9 C 95 % 1012,0 hPa 0,0 l/m 0 min 0 min 0 W/m 6,4 km/h (2 Bft) 97,87 %
25.11.2022 05:44 8,1 C 7,2 C 3,9 C 95 % 1011,9 hPa 0,0 l/m 0 min 0 min 0 W/m 3,2 km/h (1 Bft) 97,87 %
25.11.2022 05:46 8,1 C 7,2 C 3,9 C 95 % 1011,9 hPa 0,0 l/m 0 min 2 min 0 W/m 3,2 km/h (1 Bft) 97,87 %
25.11.2022 05:48 8,1 C 7,2 C 3,9 C 95 % 1012,0 hPa 0,0 l/m 0 min 2 min 0 W/m 6,4 km/h (2 Bft) 97,87 %
25.11.2022 05:50 8,1 C 7,2 C 3,9 C 95 % 1012,0 hPa 0,0 l/m 0 min 0 min 0 W/m 9,7 km/h (2 Bft) 95,74 %
25.11.2022 05:52 8,1 C 7,2 C 3,9 C 95 % 1012,0 hPa 0,0 l/m 0 min 2 min 0 W/m 6,4 km/h (2 Bft) 93,48 %
25.11.2022 05:54 8,1 C 7,2 C 3,9 C 95 % 1012,0 hPa 0,2 l/m 0 min 2 min 0 W/m 3,2 km/h (1 Bft) 97,87 %
25.11.2022 05:56 8,1 C 7,2 C 3,9 C 95 % 1012,0 hPa 0,0 l/m 0 min 2 min 0 W/m 3,2 km/h (1 Bft) 95,74 %
25.11.2022 05:58 8,1 C 7,2 C 4,4 C 95 % 1012,0 hPa 0,0 l/m 0 min 0 min 0 W/m 6,4 km/h (2 Bft) 100,00 %
25.11.2022 06:00 8,1 C 7,2 C 4,4 C 95 % 1012,1 hPa 0,0 l/m 0 min 0 min 0 W/m 3,2 km/h (1 Bft) 100,00 %
25.11.2022 06:02 8,1 C 7,2 C 4,4 C 95 % 1012,1 hPa 0,0 l/m 0 min 0 min 0 W/m 6,4 km/h (2 Bft) 97,87 %
25.11.2022 06:04 8,1 C 7,2 C 4,4 C 95 % 1012,1 hPa 0,0 l/m 0 min 0 min 0 W/m 6,4 km/h (2 Bft) 100,00 %
25.11.2022 06:08 8,1 C 7,2 C 4,4 C 95 % 1012,0 hPa 0,0 l/m 0 min 0 min 0 W/m 12,9 km/h (3 Bft) 100,00 %
25.11.2022 06:10 8,1 C 7,2 C 4,4 C 95 % 1012,0 hPa 0,0 l/m 0 min 0 min 0 W/m 6,4 km/h (2 Bft) 97,87 %
25.11.2022 06:12 8,1 C 7,2 C 4,4 C 95 % 1011,9 hPa 0,0 l/m 0 min 0 min 0 W/m 3,2 km/h (1 Bft) 97,87 %
25.11.2022 06:14 8,1 C 7,2 C 4,4 C 95 % 1011,9 hPa 0,0 l/m 0 min 0 min 0 W/m 3,2 km/h (1 Bft) 100,00 %
25.11.2022 06:16 8,1 C 7,2 C 3,9 C 95 % 1012,1 hPa 0,0 l/m 0 min 0 min 0 W/m 3,2 km/h (1 Bft) 97,87 %
25.11.2022 06:18 8,1 C 7,2 C 3,9 C 96 % 1012,1 hPa 0,0 l/m 0 min 0 min 0 W/m 12,9 km/h (3 Bft) 100,00 %
25.11.2022 06:20 8,1 C 7,2 C 3,9 C 95 % 1012,0 hPa 0,0 l/m 0 min 0 min 0 W/m 12,9 km/h (3 Bft) 97,87 %
25.11.2022 06:22 8,1 C 7,2 C 3,9 C 95 % 1012,2 hPa 0,0 l/m 0 min 0 min 0 W/m 6,4 km/h (2 Bft) 100,00 %
25.11.2022 06:24 8,0 C 7,2 C 3,9 C 95 % 1012,2 hPa 0,0 l/m 0 min 0 min 0 W/m 6,4 km/h (2 Bft) 100,00 %
25.11.2022 06:26 8,0 C 7,2 C 4,4 C 95 % 1012,2 hPa 0,0 l/m 0 min 0 min 0 W/m 9,7 km/h (2 Bft) 95,65 %
25.11.2022 06:28 8,1 C 7,2 C 4,4 C 96 % 1012,2 hPa 0,0 l/m 0 min 0 min 0 W/m 6,4 km/h (2 Bft) 100,00 %
25.11.2022 06:30 8,0 C 7,2 C 4,4 C 96 % 1012,2 hPa 0,0 l/m 0 min 0 min 0 W/m 6,4 km/h (2 Bft) 100,00 %
25.11.2022 06:32 8,1 C 7,2 C 4,4 C 96 % 1012,3 hPa 0,0 l/m 0 min 0 min 0 W/m 6,4 km/h (2 Bft) 100,00 %
25.11.2022 06:34 8,0 C 7,2 C 4,4 C 96 % 1012,3 hPa 0,0 l/m 0 min 0 min 0 W/m 3,2 km/h (1 Bft) 95,74 %
25.11.2022 06:36 8,0 C 7,2 C 4,4 C 96 % 1012,3 hPa 0,0 l/m 0 min 0 min 0 W/m 12,9 km/h (3 Bft) 97,87 %
25.11.2022 06:38 8,1 C 7,2 C 4,4 C 96 % 1012,3 hPa 0,0 l/m 0 min 0 min 0 W/m 6,4 km/h (2 Bft) 97,83 %
25.11.2022 06:40 8,1 C 7,2 C 4,4 C 96 % 1012,3 hPa 0,0 l/m 0 min 0 min 0 W/m 6,4 km/h (2 Bft) 97,87 %
25.11.2022 06:42 8,1 C 7,2 C 4,4 C 96 % 1012,3 hPa 0,0 l/m 0 min 0 min 0 W/m 6,4 km/h (2 Bft) 100,00 %
25.11.2022 06:44 8,1 C 7,2 C 4,4 C 96 % 1012,3 hPa 0,0 l/m 0 min 0 min 0 W/m 6,4 km/h (2 Bft) 96,61 %
25.11.2022 06:46 8,1 C 7,2 C 4,4 C 96 % 1012,3 hPa 0,0 l/m 0 min 0 min 0 W/m 3,2 km/h (1 Bft) 97,14 %
25.11.2022 06:48 8,1 C 7,2 C 4,4 C 96 % 1012,3 hPa 0,0 l/m 0 min 0 min 0 W/m 6,4 km/h (2 Bft) 98,31 %
25.11.2022 06:50 8,1 C 7,2 C 4,4 C 96 % 1012,3 hPa 0,0 l/m 0 min 0 min 0 W/m 3,2 km/h (1 Bft) 97,87 %
25.11.2022 06:52 8,1 C 7,2 C 4,4 C 96 % 1012,3 hPa 0,0 l/m 0 min 0 min 0 W/m 6,4 km/h (2 Bft) 97,14 %
25.11.2022 06:54 8,1 C 7,2 C 4,4 C 96 % 1012,3 hPa 0,0 l/m 0 min 0 min 0 W/m 6,4 km/h (2 Bft) 98,28 %
25.11.2022 06:56 8,1 C 7,2 C 4,4 C 96 % 1012,4 hPa 0,0 l/m 0 min 0 min 0 W/m 3,2 km/h (1 Bft) 97,87 %
25.11.2022 06:58 8,1 C 7,2 C 4,4 C 96 % 1012,4 hPa 0,0 l/m 0 min 0 min 0 W/m 9,7 km/h (2 Bft) 97,14 %
25.11.2022 07:00 8,1 C 7,2 C 4,4 C 96 % 1012,4 hPa 0,0 l/m 0 min 0 min 0 W/m 3,2 km/h (1 Bft) 95,74 %
25.11.2022 07:02 8,1 C 7,2 C 4,4 C 96 % 1012,5 hPa 0,0 l/m 0 min 0 min 0 W/m 6,4 km/h (2 Bft) 98,28 %
25.11.2022 07:04 8,1 C 7,2 C 4,4 C 96 % 1012,5 hPa 0,0 l/m 0 min 0 min 0 W/m 6,4 km/h (2 Bft) 95,74 %
25.11.2022 07:06 8,1 C 7,2 C 4,4 C 96 % 1012,5 hPa 0,0 l/m 0 min 0 min 0 W/m 6,4 km/h (2 Bft) 97,87 %
25.11.2022 07:08 8,1 C 7,2 C 4,4 C 96 % 1012,6 hPa 0,0 l/m 0 min 0 min 0 W/m 9,7 km/h (2 Bft) 100,00 %
25.11.2022 07:10 8,1 C 7,2 C 4,4 C 96 % 1012,6 hPa 0,0 l/m 0 min 0 min 0 W/m 3,2 km/h (1 Bft) 100,00 %
25.11.2022 07:12 8,1 C 7,2 C 4,4 C 96 % 1012,6 hPa 0,0 l/m 0 min 0 min 0 W/m 3,2 km/h (1 Bft) 100,00 %
25.11.2022 07:14 8,1 C 7,2 C 4,4 C 96 % 1012,6 hPa 0,0 l/m 0 min 0 min 0 W/m 6,4 km/h (2 Bft) 97,87 %
25.11.2022 07:16 8,1 C 7,2 C 4,4 C 96 % 1012,6 hPa 0,0 l/m 0 min 0 min 0 W/m 6,4 km/h (2 Bft) 100,00 %
25.11.2022 07:18 8,1 C 7,2 C 4,4 C 96 % 1012,7 hPa 0,0 l/m 0 min 0 min 0 W/m 9,7 km/h (2 Bft) 97,87 %
25.11.2022 07:20 8,1 C 7,2 C 4,4 C 96 % 1012,7 hPa 0,0 l/m 0 min 0 min 0 W/m 6,4 km/h (2 Bft) 97,87 %
25.11.2022 07:22 8,1 C 7,2 C 4,4 C 96 % 1012,7 hPa 0,0 l/m 0 min 0 min 0 W/m 9,7 km/h (2 Bft) 97,87 %
25.11.2022 07:24 8,1 C 7,2 C 4,4 C 96 % 1012,8 hPa 0,0 l/m 0 min 0 min 0 W/m 6,4 km/h (2 Bft) 93,62 %
25.11.2022 07:26 8,1 C 7,2 C 4,4 C 96 % 1012,7 hPa 0,0 l/m 0 min 0 min 0 W/m 3,2 km/h (1 Bft) 95,74 %
25.11.2022 07:28 8,1 C 7,2 C 4,4 C 96 % 1012,8 hPa 0,0 l/m 0 min 0 min 0 W/m 3,2 km/h (1 Bft) 97,83 %
25.11.2022 07:30 8,1 C 7,2 C 4,4 C 96 % 1012,8 hPa 0,0 l/m 0 min 0 min 0 W/m 6,4 km/h (2 Bft) 97,87 %
25.11.2022 07:32 8,1 C 7,2 C 4,4 C 97 % 1012,8 hPa 0,0 l/m 0 min 0 min 0 W/m 3,2 km/h (1 Bft) 95,74 %
25.11.2022 07:34 8,1 C 7,2 C 4,4 C 97 % 1012,8 hPa 0,0 l/m 0 min 0 min 0 W/m 6,4 km/h (2 Bft) 97,87 %
25.11.2022 07:36 8,1 C 7,2 C 4,4 C 97 % 1012,9 hPa 0,0 l/m 0 min 0 min 0 W/m 12,9 km/h (3 Bft) 97,87 %
25.11.2022 07:38 8,1 C 7,2 C 4,4 C 97 % 1012,8 hPa 0,0 l/m 0 min 0 min 0 W/m 3,2 km/h (1 Bft) 97,87 %
25.11.2022 07:40 8,1 C 7,2 C 4,4 C 97 % 1012,9 hPa 0,0 l/m 0 min 0 min 0 W/m 3,2 km/h (1 Bft) 97,83 %
25.11.2022 07:42 8,1 C 7,2 C 4,4 C 97 % 1013,0 hPa 0,0 l/m 0 min 0 min 0 W/m 6,4 km/h (2 Bft) 97,87 %
25.11.2022 07:44 8,0 C 7,2 C 4,4 C 97 % 1013,0 hPa 0,0 l/m 0 min 0 min 0 W/m 6,4 km/h (2 Bft) 97,87 %
25.11.2022 07:46 8,0 C 7,2 C 4,4 C 97 % 1012,9 hPa 0,0 l/m 0 min 0 min 0 W/m 3,2 km/h (1 Bft) 97,87 %
25.11.2022 07:48 8,0 C 7,2 C 4,4 C 97 % 1013,0 hPa 0,0 l/m 0 min 0 min 0 W/m 6,4 km/h (2 Bft) 97,87 %
25.11.2022 07:50 8,0 C 7,2 C 4,4 C 97 % 1013,0 hPa 0,0 l/m 0 min 0 min 0 W/m 3,2 km/h (1 Bft) 97,87 %
25.11.2022 07:52 8,0 C 7,2 C 4,4 C 96 % 1013,0 hPa 0,0 l/m 0 min 0 min 0 W/m 6,4 km/h (2 Bft) 97,83 %
25.11.2022 07:54 7,9 C 7,2 C 4,4 C 96 % 1013,0 hPa 0,0 l/m 0 min 0 min 0 W/m 6,4 km/h (2 Bft) 97,87 %
25.11.2022 07:56 7,9 C 6,7 C 4,4 C 96 % 1013,0 hPa 0,0 l/m 0 min 0 min 0 W/m 6,4 km/h (2 Bft) 95,74 %
25.11.2022 07:58 7,9 C 6,7 C 3,9 C 96 % 1013,1 hPa 0,0 l/m 0 min 0 min 0 W/m 6,4 km/h (2 Bft) 95,74 %
25.11.2022 08:00 7,9 C 6,7 C 3,9 C 96 % 1013,2 hPa 0,0 l/m 0 min 0 min 0 W/m 3,2 km/h (1 Bft) 97,87 %
25.11.2022 08:02 7,8 C 6,7 C 3,9 C 96 % 1013,1 hPa 0,0 l/m 0 min 0 min 0 W/m 6,4 km/h (2 Bft) 95,74 %
25.11.2022 08:04 7,8 C 6,7 C 3,9 C 96 % 1013,2 hPa 0,0 l/m 0 min 0 min 0 W/m 3,2 km/h (1 Bft) 100,00 %
25.11.2022 08:06 7,8 C 6,7 C 3,9 C 97 % 1013,1 hPa 0,0 l/m 0 min 0 min 0 W/m 6,4 km/h (2 Bft) 98,31 %
25.11.2022 08:08 7,8 C 6,7 C 3,9 C 97 % 1013,2 hPa 0,0 l/m 0 min 0 min 0 W/m 3,2 km/h (1 Bft) 97,14 %
25.11.2022 08:10 7,7 C 6,7 C 3,9 C 97 % 1013,2 hPa 0,0 l/m 0 min 0 min 0 W/m 6,4 km/h (2 Bft) 97,87 %
25.11.2022 08:12 7,7 C 6,7 C 3,9 C 97 % 1013,2 hPa 0,0 l/m 0 min 0 min 0 W/m 6,4 km/h (2 Bft) 95,74 %
25.11.2022 08:14 7,7 C 6,7 C 3,9 C 97 % 1013,2 hPa 0,0 l/m 0 min 0 min 0 W/m 6,4 km/h (2 Bft) 97,87 %
25.11.2022 08:16 7,6 C 6,7 C 3,9 C 97 % 1013,2 hPa 0,0 l/m 0 min 0 min 1 W/m 6,4 km/h (2 Bft) 95,65 %
25.11.2022 08:18 7,6 C 6,7 C 3,9 C 96 % 1013,3 hPa 0,0 l/m 0 min 0 min 5 W/m 6,4 km/h (2 Bft) 95,74 %
25.11.2022 08:20 7,6 C 6,7 C 3,9 C 96 % 1013,3 hPa 0,0 l/m 0 min 0 min 5 W/m 6,4 km/h (2 Bft) 97,87 %
25.11.2022 08:22 7,5 C 6,1 C 3,9 C 96 % 1013,4 hPa 0,0 l/m 0 min 0 min 5 W/m 0,0 km/h (0 Bft) 95,74 %
25.11.2022 08:24 7,5 C 6,1 C 3,9 C 96 % 1013,4 hPa 0,0 l/m 0 min 0 min 5 W/m 3,2 km/h (1 Bft) 95,74 %
25.11.2022 08:26 7,5 C 6,1 C 3,9 C 96 % 1013,4 hPa 0,0 l/m 0 min 0 min 5 W/m 0,0 km/h (0 Bft) 95,65 %
25.11.2022 08:28 7,4 C 6,1 C 3,9 C 96 % 1013,5 hPa 0,0 l/m 0 min 0 min 5 W/m 0,0 km/h (0 Bft) 95,74 %
25.11.2022 08:30 7,4 C 6,1 C 3,9 C 96 % 1013,5 hPa 0,0 l/m 0 min 0 min 7 W/m 0,0 km/h (0 Bft) 47,50 %
25.11.2022 08:32 7,4 C 6,1 C 3,9 C 97 % 1013,5 hPa 0,0 l/m 0 min 0 min 7 W/m 0,0 km/h (0 Bft) 91,67 %
25.11.2022 08:34 7,3 C 6,1 C 3,9 C 97 % 1013,5 hPa 0,0 l/m 0 min 0 min 7 W/m 0,0 km/h (0 Bft) 93,62 %
25.11.2022 08:36 7,3 C 6,1 C 3,3 C 97 % 1013,5 hPa 0,0 l/m 0 min 0 min 7 W/m 0,0 km/h (0 Bft) 93,62 %
25.11.2022 08:38 7,3 C 6,1 C 3,9 C 97 % 1013,6 hPa 0,0 l/m 0 min 0 min 8 W/m 0,0 km/h (0 Bft) 93,62 %
25.11.2022 08:40 7,3 C 6,1 C 3,9 C 97 % 1013,7 hPa 0,0 l/m 0 min 0 min 9 W/m 0,0 km/h (0 Bft) 95,65 %
25.11.2022 08:42 7,3 C 6,1 C 3,9 C 97 % 1013,7 hPa 0,0 l/m 0 min 0 min 9 W/m 0,0 km/h (0 Bft) 93,62 %
25.11.2022 08:44 7,2 C 6,1 C 3,9 C 97 % 1013,7 hPa 0,0 l/m 0 min 0 min 10 W/m 0,0 km/h (0 Bft) 93,62 %
25.11.2022 08:46 7,2 C 6,1 C 3,9 C 96 % 1013,7 hPa 0,0 l/m 0 min 0 min 11 W/m 0,0 km/h (0 Bft) 93,62 %
25.11.2022 08:48 7,2 C 6,1 C 3,9 C 96 % 1013,8 hPa 0,0 l/m 0 min 0 min 13 W/m 0,0 km/h (0 Bft) 95,74 %
25.11.2022 08:50 7,2 C 6,1 C 3,9 C 97 % 1013,9 hPa 0,0 l/m 0 min 0 min 17 W/m 0,0 km/h (0 Bft) 95,65 %
25.11.2022 08:52 7,2 C 6,1 C 3,9 C 97 % 1013,9 hPa 0,0 l/m 0 min 0 min 20 W/m 0,0 km/h (0 Bft) 93,62 %
25.11.2022 08:54 7,2 C 6,1 C 3,9 C 97 % 1014,0 hPa 0,0 l/m 0 min 0 min 23 W/m 0,0 km/h (0 Bft) 95,74 %
25.11.2022 08:56 7,2 C 6,7 C 3,9 C 97 % 1014,0 hPa 0,0 l/m 0 min 0 min 27 W/m 0,0 km/h (0 Bft) 97,87 %
25.11.2022 08:58 7,2 C 6,7 C 3,9 C 97 % 1014,1 hPa 0,0 l/m 0 min 0 min 26 W/m 0,0 km/h (0 Bft) 97,87 %
25.11.2022 09:00 7,2 C 6,7 C 3,9 C 97 % 1014,0 hPa 0,0 l/m 0 min 0 min 25 W/m 0,0 km/h (0 Bft) 97,87 %
25.11.2022 09:02 7,2 C 6,7 C 3,9 C 97 % 1014,0 hPa 0,0 l/m 0 min 0 min 24 W/m 0,0 km/h (0 Bft) 97,87 %
25.11.2022 09:04 7,2 C 6,7 C 3,9 C 97 % 1014,1 hPa 0,0 l/m 0 min 0 min 24 W/m 0,0 km/h (0 Bft) 97,56 %
25.11.2022 09:06 7,2 C 6,7 C 3,9 C 97 % 1014,1 hPa 0,0 l/m 0 min 0 min 25 W/m 0,0 km/h (0 Bft) 100,00 %
25.11.2022 09:08 7,2 C 6,7 C 3,9 C 97 % 1014,1 hPa 0,0 l/m 0 min 0 min 25 W/m 0,0 km/h (0 Bft) 100,00 %
25.11.2022 09:10 7,2 C 6,7 C 3,9 C 97 % 1014,2 hPa 0,0 l/m 0 min 0 min 25 W/m 0,0 km/h (0 Bft) 97,87 %
25.11.2022 09:12 7,2 C 6,7 C 3,9 C 97 % 1014,2 hPa 0,0 l/m 0 min 0 min 25 W/m 0,0 km/h (0 Bft) 100,00 %
25.11.2022 09:14 7,2 C 6,7 C 3,9 C 97 % 1014,3 hPa 0,0 l/m 0 min 0 min 26 W/m 0,0 km/h (0 Bft) 95,74 %
25.11.2022 09:16 7,2 C 6,7 C 3,9 C 97 % 1014,2 hPa 0,0 l/m 0 min 0 min 26 W/m 0,0 km/h (0 Bft) 100,00 %
25.11.2022 09:18 7,2 C 6,7 C 3,9 C 97 % 1014,2 hPa 0,0 l/m 0 min 0 min 26 W/m 0,0 km/h (0 Bft) 100,00 %
25.11.2022 09:20 7,2 C 6,7 C 3,9 C 97 % 1014,3 hPa 0,0 l/m 0 min 0 min 28 W/m 0,0 km/h (0 Bft) 97,87 %
25.11.2022 09:22 7,2 C 6,7 C 3,9 C 97 % 1014,3 hPa 0,0 l/m 0 min 0 min 29 W/m 0,0 km/h (0 Bft) 100,00 %
25.11.2022 09:24 7,2 C 6,7 C 3,9 C 97 % 1014,3 hPa 0,0 l/m 0 min 0 min 30 W/m 0,0 km/h (0 Bft) 100,00 %
25.11.2022 09:26 7,3 C 6,7 C 3,9 C 97 % 1014,3 hPa 0,0 l/m 0 min 0 min 30 W/m 0,0 km/h (0 Bft) 100,00 %
25.11.2022 09:28 7,3 C 6,7 C 3,9 C 97 % 1014,3 hPa 0,0 l/m 0 min 0 min 32 W/m 0,0 km/h (0 Bft) 100,00 %
25.11.2022 09:30 7,3 C 7,2 C 3,9 C 97 % 1014,4 hPa 0,0 l/m 0 min 0 min 31 W/m 0,0 km/h (0 Bft) 97,87 %
25.11.2022 09:32 7,3 C 7,2 C 3,9 C 97 % 1014,4 hPa 0,0 l/m 0 min 0 min 34 W/m 0,0 km/h (0 Bft) 95,74 %
25.11.2022 09:34 7,3 C 7,2 C 3,9 C 97 % 1014,4 hPa 0,0 l/m 0 min 0 min 54 W/m 9,7 km/h (2 Bft) 93,62 %
25.11.2022 09:36 7,4 C 7,2 C 3,9 C 97 % 1014,4 hPa 0,0 l/m 0 min 0 min 80 W/m 6,4 km/h (2 Bft) 97,87 %
25.11.2022 09:38 7,4 C 7,2 C 3,9 C 97 % 1014,4 hPa 0,0 l/m 2 min 0 min 87 W/m 6,4 km/h (2 Bft) 100,00 %
25.11.2022 09:40 7,4 C 7,2 C 3,9 C 97 % 1014,4 hPa 0,0 l/m 2 min 0 min 117 W/m 6,4 km/h (2 Bft) 100,00 %
25.11.2022 09:42 7,4 C 7,2 C 3,9 C 97 % 1014,4 hPa 0,0 l/m 2 min 0 min 125 W/m 3,2 km/h (1 Bft) 97,87 %
25.11.2022 09:44 7,5 C 7,2 C 3,9 C 97 % 1014,4 hPa 0,0 l/m 2 min 0 min 122 W/m 9,7 km/h (2 Bft) 95,74 %
25.11.2022 09:46 7,6 C 7,2 C 4,4 C 97 % 1014,5 hPa 0,0 l/m 2 min 0 min 143 W/m 6,4 km/h (2 Bft) 97,87 %
25.11.2022 09:48 7,6 C 7,2 C 4,4 C 97 % 1014,4 hPa 0,0 l/m 2 min 0 min 152 W/m 6,4 km/h (2 Bft) 97,87 %
25.11.2022 09:50 7,6 C 7,2 C 4,4 C 97 % 1014,5 hPa 0,0 l/m 2 min 0 min 156 W/m 6,4 km/h (2 Bft) 95,74 %
25.11.2022 09:52 7,6 C 7,2 C 4,4 C 97 % 1014,5 hPa 0,0 l/m 2 min 0 min 160 W/m 9,7 km/h (2 Bft) 93,48 %
25.11.2022 09:54 7,7 C 7,2 C 4,4 C 97 % 1014,5 hPa 0,0 l/m 2 min 0 min 166 W/m 12,9 km/h (3 Bft) 97,87 %
25.11.2022 09:56 7,7 C 7,8 C 4,4 C 97 % 1014,5 hPa 0,0 l/m 2 min 0 min 117 W/m 12,9 km/h (3 Bft) 97,87 %
25.11.2022 09:58 7,8 C 7,8 C 4,4 C 97 % 1014,5 hPa 0,0 l/m 2 min 0 min 118 W/m 6,4 km/h (2 Bft) 100,00 %
25.11.2022 10:00 7,8 C 7,8 C 4,4 C 98 % 1014,6 hPa 0,0 l/m 2 min 0 min 145 W/m 6,4 km/h (2 Bft) 97,87 %
25.11.2022 10:02 7,8 C 7,8 C 4,4 C 98 % 1014,6 hPa 0,0 l/m 2 min 0 min 111 W/m 9,7 km/h (2 Bft) 100,00 %
25.11.2022 10:04 7,9 C 7,8 C 4,4 C 98 % 1014,6 hPa 0,0 l/m 2 min 0 min 179 W/m 12,9 km/h (3 Bft) 97,83 %
25.11.2022 10:06 8,0 C 7,8 C 4,4 C 97 % 1014,7 hPa 0,0 l/m 2 min 0 min 197 W/m 6,4 km/h (2 Bft) 96,61 %
25.11.2022 10:08 8,1 C 8,3 C 4,4 C 97 % 1014,7 hPa 0,0 l/m 2 min 0 min 227 W/m 6,4 km/h (2 Bft) 94,29 %
25.11.2022 10:10 8,2 C 8,3 C 5,0 C 98 % 1014,7 hPa 0,0 l/m 2 min 0 min 243 W/m 9,7 km/h (2 Bft) 97,87 %
25.11.2022 10:12 8,3 C 8,9 C 5,0 C 98 % 1014,7 hPa 0,0 l/m 2 min 0 min 263 W/m 9,7 km/h (2 Bft) 93,62 %
25.11.2022 10:14 8,3 C 8,9 C 5,0 C 98 % 1014,8 hPa 0,0 l/m 2 min 0 min 275 W/m 16,1 km/h (3 Bft) 95,74 %
25.11.2022 10:16 8,4 C 8,9 C 5,0 C 98 % 1014,8 hPa 0,0 l/m 2 min 0 min 257 W/m 12,9 km/h (3 Bft) 95,65 %
25.11.2022 10:18 8,6 C 9,4 C 5,0 C 98 % 1014,8 hPa 0,0 l/m 2 min 0 min 235 W/m 16,1 km/h (3 Bft) 95,74 %
25.11.2022 10:20 8,7 C 9,4 C 5,6 C 98 % 1014,8 hPa 0,0 l/m 2 min 0 min 157 W/m 16,1 km/h (3 Bft) 97,87 %
25.11.2022 10:22 8,7 C 9,4 C 5,6 C 98 % 1014,8 hPa 0,0 l/m 2 min 0 min 122 W/m 22,5 km/h (4 Bft) 97,87 %
25.11.2022 10:24 8,8 C 9,4 C 5,6 C 98 % 1014,9 hPa 0,0 l/m 2 min 0 min 185 W/m 16,1 km/h (3 Bft) 95,74 %
25.11.2022 10:26 8,9 C 9,4 C 5,6 C 98 % 1014,9 hPa 0,0 l/m 2 min 0 min 214 W/m 25,7 km/h (4 Bft) 93,48 %
25.11.2022 10:28 9,0 C 9,4 C 5,6 C 98 % 1014,9 hPa 0,0 l/m 2 min 0 min 217 W/m 19,3 km/h (3 Bft) 95,74 %
25.11.2022 10:30 9,1 C 9,4 C 5,6 C 98 % 1014,9 hPa 0,0 l/m 2 min 0 min 265 W/m 19,3 km/h (3 Bft) 93,62 %
25.11.2022 10:32 9,2 C 9,4 C 5,6 C 97 % 1014,9 hPa 0,0 l/m 2 min 0 min 227 W/m 12,9 km/h (3 Bft) 95,74 %
25.11.2022 10:34 9,2 C 9,4 C 5,6 C 98 % 1015,0 hPa 0,0 l/m 2 min 0 min 186 W/m 12,9 km/h (3 Bft) 95,74 %
25.11.2022 10:36 9,3 C 9,4 C 5,6 C 97 % 1015,0 hPa 0,0 l/m 0 min 0 min 121 W/m 16,1 km/h (3 Bft) 91,49 %
25.11.2022 10:38 9,3 C 9,4 C 5,6 C 97 % 1015,0 hPa 0,0 l/m 0 min 0 min 90 W/m 16,1 km/h (3 Bft) 95,74 %
25.11.2022 10:40 9,3 C 9,4 C 5,6 C 97 % 1015,1 hPa 0,0 l/m 0 min 0 min 70 W/m 12,9 km/h (3 Bft) 97,83 %
25.11.2022 10:42 9,3 C 9,4 C 5,6 C 97 % 1015,1 hPa 0,0 l/m 0 min 0 min 102 W/m 12,9 km/h (3 Bft) 93,62 %
25.11.2022 10:44 9,3 C 9,4 C 5,6 C 97 % 1015,2 hPa 0,0 l/m 2 min 0 min 137 W/m 29,0 km/h (5 Bft) 97,87 %
25.11.2022 10:46 9,4 C 9,4 C 5,6 C 97 % 1015,2 hPa 0,0 l/m 0 min 0 min 119 W/m 16,1 km/h (3 Bft) 97,87 %
25.11.2022 10:48 9,4 C 9,4 C 5,6 C 97 % 1015,2 hPa 0,0 l/m 0 min 0 min 56 W/m 9,7 km/h (2 Bft) 95,74 %
25.11.2022 10:50 9,4 C 9,4 C 5,6 C 96 % 1015,2 hPa 0,0 l/m 0 min 0 min 101 W/m 16,1 km/h (3 Bft) 93,62 %
25.11.2022 10:52 9,5 C 9,4 C 5,6 C 96 % 1015,2 hPa 0,0 l/m 0 min 0 min 76 W/m 12,9 km/h (3 Bft) 95,65 %
25.11.2022 10:54 9,5 C 9,4 C 5,6 C 96 % 1015,3 hPa 0,0 l/m 0 min 0 min 66 W/m 12,9 km/h (3 Bft) 95,74 %
25.11.2022 10:56 9,6 C 9,4 C 5,6 C 96 % 1015,2 hPa 0,0 l/m 0 min 0 min 78 W/m 16,1 km/h (3 Bft) 95,74 %
25.11.2022 10:58 9,6 C 9,4 C 5,6 C 96 % 1015,3 hPa 0,0 l/m 0 min 0 min 82 W/m 25,7 km/h (4 Bft) 95,74 %
25.11.2022 11:00 9,6 C 9,4 C 5,6 C 95 % 1015,4 hPa 0,0 l/m 0 min 0 min 84 W/m 12,9 km/h (3 Bft) 93,62 %
25.11.2022 11:02 9,7 C 9,4 C 5,6 C 95 % 1015,3 hPa 0,0 l/m 0 min 0 min 62 W/m 12,9 km/h (3 Bft) 95,74 %
25.11.2022 11:04 9,7 C 9,4 C 5,6 C 95 % 1015,3 hPa 0,0 l/m 0 min 0 min 48 W/m 22,5 km/h (4 Bft) 97,87 %
25.11.2022 11:06 9,7 C 9,4 C 5,6 C 95 % 1015,4 hPa 0,0 l/m 0 min 0 min 46 W/m 9,7 km/h (2 Bft) 93,62 %
25.11.2022 11:08 9,8 C 9,4 C 5,6 C 95 % 1015,4 hPa 0,0 l/m 0 min 0 min 44 W/m 19,3 km/h (3 Bft) 94,44 %
25.11.2022 11:10 9,8 C 9,4 C 5,6 C 94 % 1015,4 hPa 0,0 l/m 0 min 0 min 44 W/m 25,7 km/h (4 Bft) 97,87 %
25.11.2022 11:12 9,8 C 9,4 C 5,6 C 94 % 1015,4 hPa 0,0 l/m 0 min 0 min 44 W/m 25,7 km/h (4 Bft) 95,65 %
25.11.2022 11:14 9,8 C 9,4 C 5,6 C 94 % 1015,4 hPa 0,0 l/m 0 min 0 min 46 W/m 12,9 km/h (3 Bft) 97,87 %
25.11.2022 11:16 9,9 C 9,4 C 5,6 C 94 % 1015,5 hPa 0,0 l/m 0 min 0 min 46 W/m 16,1 km/h (3 Bft) 97,87 %
25.11.2022 11:18 9,9 C 9,4 C 5,6 C 94 % 1015,5 hPa 0,0 l/m 0 min 0 min 47 W/m 9,7 km/h (2 Bft) 97,87 %
25.11.2022 11:20 9,9 C 9,4 C 5,6 C 93 % 1015,5 hPa 0,0 l/m 0 min 0 min 48 W/m 19,3 km/h (3 Bft) 97,87 %
25.11.2022 11:22 10,0 C 10,0 C 5,6 C 93 % 1015,6 hPa 0,0 l/m 0 min 0 min 56 W/m 19,3 km/h (3 Bft) 95,74 %
25.11.2022 11:24 10,0 C 10,0 C 5,6 C 93 % 1015,6 hPa 0,0 l/m 0 min 0 min 65 W/m 19,3 km/h (3 Bft) 97,83 %
25.11.2022 11:26 10,1 C 10,0 C 5,6 C 93 % 1015,6 hPa 0,0 l/m 0 min 0 min 56 W/m 12,9 km/h (3 Bft) 95,74 %
25.11.2022 11:28 10,1 C 10,0 C 5,6 C 93 % 1015,6 hPa 0,0 l/m 0 min 0 min 63 W/m 12,9 km/h (3 Bft) 95,74 %
25.11.2022 11:30 10,1 C 10,0 C 6,1 C 93 % 1015,7 hPa 0,0 l/m 0 min 0 min 88 W/m 19,3 km/h (3 Bft) 95,74 %
25.11.2022 11:32 10,1 C 10,0 C 6,1 C 92 % 1015,7 hPa 0,0 l/m 0 min 0 min 66 W/m 9,7 km/h (2 Bft) 97,87 %
25.11.2022 11:34 10,2 C 10,0 C 6,1 C 92 % 1015,7 hPa 0,0 l/m 0 min 0 min 60 W/m 16,1 km/h (3 Bft) 97,87 %
25.11.2022 11:36 10,2 C 10,0 C 6,1 C 92 % 1015,7 hPa 0,0 l/m 0 min 0 min 65 W/m 6,4 km/h (2 Bft) 100,00 %
25.11.2022 11:38 10,2 C 10,0 C 6,1 C 92 % 1015,7 hPa 0,0 l/m 0 min 0 min 68 W/m 12,9 km/h (3 Bft) 55,56 %
25.11.2022 11:40 10,2 C 10,0 C 6,1 C 92 % 1015,7 hPa 0,0 l/m 0 min 0 min 68 W/m 19,3 km/h (3 Bft) 100,00 %
25.11.2022 11:42 10,2 C 10,0 C 6,1 C 92 % 1015,8 hPa 0,0 l/m 0 min 0 min 56 W/m 16,1 km/h (3 Bft) 97,87 %
25.11.2022 11:44 10,3 C 10,0 C 6,1 C 92 % 1015,8 hPa 0,0 l/m 0 min 0 min 53 W/m 16,1 km/h (3 Bft) 100,00 %
25.11.2022 11:46 10,3 C 10,0 C 6,1 C 92 % 1015,8 hPa 0,0 l/m 0 min 0 min 54 W/m 12,9 km/h (3 Bft) 100,00 %
25.11.2022 11:48 10,3 C 10,0 C 6,1 C 91 % 1015,8 hPa 0,0 l/m 0 min 0 min 62 W/m 22,5 km/h (4 Bft) 97,83 %
25.11.2022 11:50 10,3 C 10,0 C 6,1 C 91 % 1015,8 hPa 0,0 l/m 0 min 0 min 55 W/m 19,3 km/h (3 Bft) 100,00 %
25.11.2022 11:52 10,3 C 10,0 C 6,1 C 91 % 1015,8 hPa 0,0 l/m 0 min 0 min 56 W/m 9,7 km/h (2 Bft) 97,87 %
25.11.2022 11:54 10,4 C 10,0 C 6,1 C 91 % 1015,7 hPa 0,0 l/m 0 min 0 min 51 W/m 16,1 km/h (3 Bft) 100,00 %
25.11.2022 11:56 10,4 C 10,0 C 6,1 C 91 % 1015,8 hPa 0,0 l/m 0 min 0 min 49 W/m 19,3 km/h (3 Bft) 97,87 %
25.11.2022 11:58 10,4 C 10,0 C 6,1 C 91 % 1015,9 hPa 0,0 l/m 0 min 0 min 49 W/m 12,9 km/h (3 Bft) 97,87 %
25.11.2022 12:00 10,4 C 10,0 C 6,1 C 91 % 1015,9 hPa 0,0 l/m 0 min 0 min 49 W/m 12,9 km/h (3 Bft) 100,00 %
25.11.2022 12:02 10,4 C 10,0 C 6,1 C 90 % 1015,9 hPa 0,0 l/m 0 min 0 min 49 W/m 25,7 km/h (4 Bft) 97,87 %
25.11.2022 12:04 10,4 C 10,0 C 6,1 C 90 % 1015,9 hPa 0,0 l/m 0 min 0 min 50 W/m 16,1 km/h (3 Bft) 100,00 %
25.11.2022 12:08 10,5 C 10,0 C 6,7 C 90 % 1015,9 hPa 0,0 l/m 0 min 0 min 49 W/m 16,1 km/h (3 Bft) 100,00 %
25.11.2022 12:10 10,5 C 10,0 C 6,7 C 90 % 1015,9 hPa 0,0 l/m 0 min 0 min 49 W/m 16,1 km/h (3 Bft) 97,87 %
25.11.2022 12:12 10,5 C 10,0 C 6,7 C 90 % 1016,0 hPa 0,0 l/m 0 min 0 min 49 W/m 16,1 km/h (3 Bft) 100,00 %
25.11.2022 12:14 10,6 C 10,0 C 6,7 C 90 % 1016,0 hPa 0,0 l/m 0 min 0 min 49 W/m 12,9 km/h (3 Bft) 100,00 %
25.11.2022 12:16 10,6 C 10,0 C 6,7 C 90 % 1016,1 hPa 0,0 l/m 0 min 0 min 50 W/m 9,7 km/h (2 Bft) 97,87 %
25.11.2022 12:18 10,6 C 10,0 C 6,7 C 89 % 1016,1 hPa 0,0 l/m 0 min 0 min 52 W/m 12,9 km/h (3 Bft) 97,87 %
25.11.2022 12:20 10,6 C 10,6 C 6,7 C 89 % 1016,1 hPa 0,0 l/m 0 min 0 min 53 W/m 19,3 km/h (3 Bft) 100,00 %
25.11.2022 12:22 10,6 C 10,6 C 6,7 C 89 % 1016,1 hPa 0,0 l/m 0 min 0 min 56 W/m 12,9 km/h (3 Bft) 97,87 %
25.11.2022 12:24 10,7 C 10,6 C 6,7 C 89 % 1016,1 hPa 0,0 l/m 0 min 0 min 59 W/m 16,1 km/h (3 Bft) 97,87 %
25.11.2022 12:26 10,7 C 10,6 C 6,7 C 89 % 1016,1 hPa 0,0 l/m 0 min 0 min 51 W/m 22,5 km/h (4 Bft) 100,00 %
25.11.2022 12:28 10,7 C 10,6 C 6,7 C 89 % 1016,2 hPa 0,0 l/m 0 min 0 min 48 W/m 16,1 km/h (3 Bft) 97,87 %
25.11.2022 12:30 10,7 C 10,6 C 6,7 C 89 % 1016,2 hPa 0,0 l/m 0 min 0 min 49 W/m 9,7 km/h (2 Bft) 100,00 %
25.11.2022 12:32 10,8 C 10,6 C 6,7 C 89 % 1016,2 hPa 0,0 l/m 0 min 0 min 52 W/m 16,1 km/h (3 Bft) 97,87 %
25.11.2022 12:34 10,8 C 10,6 C 6,7 C 89 % 1016,3 hPa 0,0 l/m 0 min 0 min 55 W/m 9,7 km/h (2 Bft) 95,74 %
25.11.2022 12:36 10,9 C 10,6 C 6,7 C 89 % 1016,2 hPa 0,0 l/m 0 min 0 min 68 W/m 6,4 km/h (2 Bft) 93,62 %
25.11.2022 12:38 10,9 C 10,6 C 6,7 C 89 % 1016,3 hPa 0,0 l/m 0 min 0 min 59 W/m 22,5 km/h (4 Bft) 95,65 %
25.11.2022 12:40 10,9 C 10,6 C 6,7 C 89 % 1016,3 hPa 0,0 l/m 0 min 0 min 55 W/m 22,5 km/h (4 Bft) 93,62 %
25.11.2022 12:42 10,9 C 11,1 C 6,7 C 89 % 1016,3 hPa 0,0 l/m 0 min 0 min 54 W/m 12,9 km/h (3 Bft) 95,74 %
25.11.2022 12:44 10,9 C 11,1 C 7,2 C 89 % 1016,3 hPa 0,0 l/m 0 min 0 min 56 W/m 9,7 km/h (2 Bft) 95,74 %
25.11.2022 12:46 11,0 C 11,7 C 7,2 C 88 % 1016,3 hPa 0,0 l/m 0 min 0 min 55 W/m 19,3 km/h (3 Bft) 95,74 %
25.11.2022 12:48 11,0 C 11,7 C 7,2 C 88 % 1016,4 hPa 0,0 l/m 0 min 0 min 59 W/m 9,7 km/h (2 Bft) 93,48 %
25.11.2022 12:50 11,1 C 11,7 C 7,2 C 88 % 1016,4 hPa 0,0 l/m 0 min 0 min 86 W/m 9,7 km/h (2 Bft) 95,74 %
25.11.2022 12:52 11,1 C 11,7 C 7,2 C 88 % 1016,4 hPa 0,0 l/m 0 min 0 min 76 W/m 19,3 km/h (3 Bft) 95,74 %
25.11.2022 12:54 11,1 C 12,2 C 7,2 C 88 % 1016,4 hPa 0,0 l/m 0 min 0 min 82 W/m 19,3 km/h (3 Bft) 95,74 %
25.11.2022 12:56 11,1 C 12,2 C 7,2 C 88 % 1016,5 hPa 0,0 l/m 0 min 0 min 83 W/m 9,7 km/h (2 Bft) 95,74 %
25.11.2022 12:58 11,2 C 12,8 C 7,2 C 87 % 1016,5 hPa 0,0 l/m 0 min 0 min 77 W/m 12,9 km/h (3 Bft) 95,74 %
25.11.2022 13:00 11,2 C 13,9 C 7,2 C 87 % 1016,5 hPa 0,0 l/m 0 min 0 min 141 W/m 16,1 km/h (3 Bft) 93,48 %
25.11.2022 13:02 11,3 C 14,4 C 7,2 C 87 % 1016,5 hPa 0,0 l/m 0 min 0 min 138 W/m 16,1 km/h (3 Bft) 93,62 %
25.11.2022 13:04 11,3 C 14,4 C 7,2 C 87 % 1016,6 hPa 0,0 l/m 2 min 0 min 246 W/m 16,1 km/h (3 Bft) 95,83 %
25.11.2022 13:06 11,3 C 13,9 C 7,2 C 87 % 1016,5 hPa 0,0 l/m 2 min 0 min 278 W/m 16,1 km/h (3 Bft) 95,74 %
25.11.2022 13:08 11,3 C 13,3 C 7,2 C 87 % 1016,5 hPa 0,0 l/m 2 min 0 min 270 W/m 16,1 km/h (3 Bft) 100,00 %
25.11.2022 13:10 11,4 C 12,8 C 7,2 C 87 % 1016,6 hPa 0,0 l/m 2 min 0 min 262 W/m 12,9 km/h (3 Bft) 97,87 %
25.11.2022 13:12 11,4 C 12,8 C 7,2 C 87 % 1016,6 hPa 0,0 l/m 2 min 0 min 291 W/m 9,7 km/h (2 Bft) 100,00 %
25.11.2022 13:14 11,4 C 12,2 C 7,2 C 87 % 1016,6 hPa 0,0 l/m 0 min 0 min 86 W/m 12,9 km/h (3 Bft) 97,87 %
25.11.2022 13:16 11,4 C 12,8 C 7,2 C 87 % 1016,6 hPa 0,0 l/m 2 min 0 min 151 W/m 12,9 km/h (3 Bft) 100,00 %
25.11.2022 13:18 11,4 C 13,9 C 7,2 C 87 % 1016,7 hPa 0,0 l/m 2 min 0 min 304 W/m 9,7 km/h (2 Bft) 97,87 %
25.11.2022 13:20 11,5 C 13,3 C 7,2 C 87 % 1016,7 hPa 0,0 l/m 2 min 0 min 279 W/m 22,5 km/h (4 Bft) 95,74 %
25.11.2022 13:22 11,6 C 13,3 C 7,2 C 86 % 1016,7 hPa 0,0 l/m 2 min 0 min 296 W/m 16,1 km/h (3 Bft) 97,87 %
25.11.2022 13:24 11,6 C 13,3 C 7,2 C 86 % 1016,8 hPa 0,0 l/m 2 min 0 min 300 W/m 12,9 km/h (3 Bft) 100,00 %
25.11.2022 13:26 11,6 C 13,3 C 7,2 C 86 % 1016,8 hPa 0,0 l/m 2 min 0 min 309 W/m 25,7 km/h (4 Bft) 100,00 %
25.11.2022 13:28 11,6 C 12,8 C 7,2 C 85 % 1016,8 hPa 0,0 l/m 2 min 0 min 259 W/m 16,1 km/h (3 Bft) 100,00 %
25.11.2022 13:30 11,6 C 12,8 C 7,2 C 85 % 1016,8 hPa 0,0 l/m 2 min 0 min 204 W/m 25,7 km/h (4 Bft) 100,00 %
25.11.2022 13:32 11,6 C 13,3 C 7,2 C 85 % 1016,8 hPa 0,0 l/m 2 min 0 min 265 W/m 16,1 km/h (3 Bft) 100,00 %
25.11.2022 13:34 11,6 C 13,3 C 7,2 C 85 % 1016,7 hPa 0,0 l/m 2 min 0 min 262 W/m 12,9 km/h (3 Bft) 100,00 %
25.11.2022 13:36 11,6 C 13,3 C 7,2 C 85 % 1016,8 hPa 0,0 l/m 2 min 0 min 264 W/m 12,9 km/h (3 Bft) 97,83 %
25.11.2022 13:38 11,6 C 13,3 C 7,2 C 85 % 1016,8 hPa 0,0 l/m 2 min 0 min 259 W/m 12,9 km/h (3 Bft) 97,87 %
25.11.2022 13:40 11,6 C 13,9 C 7,2 C 85 % 1016,8 hPa 0,0 l/m 2 min 0 min 255 W/m 6,4 km/h (2 Bft) 97,87 %
25.11.2022 13:42 11,6 C 13,9 C 7,2 C 85 % 1016,8 hPa 0,0 l/m 2 min 0 min 272 W/m 9,7 km/h (2 Bft) 95,74 %
25.11.2022 13:44 11,6 C 13,9 C 7,2 C 85 % 1016,9 hPa 0,0 l/m 2 min 0 min 281 W/m 12,9 km/h (3 Bft) 97,87 %
25.11.2022 13:46 11,6 C 13,9 C 7,2 C 85 % 1016,9 hPa 0,0 l/m 2 min 0 min 269 W/m 6,4 km/h (2 Bft) 97,87 %
25.11.2022 13:48 11,7 C 12,8 C 7,2 C 85 % 1017,0 hPa 0,0 l/m 2 min 0 min 268 W/m 19,3 km/h (3 Bft) 97,83 %
25.11.2022 13:50 11,6 C 12,2 C 7,2 C 85 % 1017,0 hPa 0,0 l/m 2 min 0 min 272 W/m 9,7 km/h (2 Bft) 95,74 %
25.11.2022 13:52 11,6 C 12,8 C 7,2 C 85 % 1017,0 hPa 0,0 l/m 2 min 0 min 260 W/m 12,9 km/h (3 Bft) 97,87 %
25.11.2022 13:54 11,6 C 12,8 C 7,8 C 85 % 1017,1 hPa 0,0 l/m 2 min 0 min 200 W/m 16,1 km/h (3 Bft) 97,87 %
25.11.2022 13:56 11,6 C 12,2 C 7,8 C 85 % 1017,1 hPa 0,0 l/m 0 min 0 min 115 W/m 6,4 km/h (2 Bft) 97,87 %
25.11.2022 13:58 11,6 C 11,7 C 7,2 C 85 % 1017,1 hPa 0,0 l/m 0 min 0 min 90 W/m 9,7 km/h (2 Bft) 92,45 %
25.11.2022 14:00 11,6 C 11,1 C 7,2 C 84 % 1017,1 hPa 0,0 l/m 0 min 0 min 67 W/m 19,3 km/h (3 Bft) 97,87 %
25.11.2022 14:02 11,5 C 11,1 C 7,2 C 85 % 1017,1 hPa 0,0 l/m 0 min 0 min 67 W/m 6,4 km/h (2 Bft) 97,87 %
25.11.2022 14:04 11,4 C 11,1 C 7,2 C 85 % 1017,2 hPa 0,0 l/m 0 min 0 min 107 W/m 16,1 km/h (3 Bft) 97,67 %
25.11.2022 14:06 11,4 C 11,1 C 7,2 C 85 % 1017,2 hPa 0,0 l/m 2 min 0 min 176 W/m 16,1 km/h (3 Bft) 95,74 %
25.11.2022 14:08 11,4 C 11,7 C 7,2 C 84 % 1017,2 hPa 0,0 l/m 2 min 0 min 222 W/m 12,9 km/h (3 Bft) 97,87 %
25.11.2022 14:10 11,4 C 11,7 C 7,2 C 85 % 1017,2 hPa 0,0 l/m 2 min 0 min 227 W/m 12,9 km/h (3 Bft) 93,48 %
25.11.2022 14:12 11,4 C 11,7 C 7,2 C 85 % 1017,2 hPa 0,0 l/m 2 min 0 min 221 W/m 12,9 km/h (3 Bft) 97,87 %
25.11.2022 14:14 11,4 C 12,2 C 7,2 C 85 % 1017,2 hPa 0,0 l/m 2 min 0 min 212 W/m 6,4 km/h (2 Bft) 100,00 %
25.11.2022 14:16 11,5 C 12,2 C 7,2 C 85 % 1017,3 hPa 0,0 l/m 2 min 0 min 210 W/m 6,4 km/h (2 Bft) 97,87 %
25.11.2022 14:18 11,5 C 12,8 C 7,2 C 85 % 1017,3 hPa 0,0 l/m 2 min 0 min 200 W/m 6,4 km/h (2 Bft) 100,00 %
25.11.2022 14:20 11,6 C 12,2 C 7,2 C 85 % 1017,4 hPa 0,0 l/m 2 min 0 min 179 W/m 6,4 km/h (2 Bft) 100,00 %
25.11.2022 14:22 11,6 C 12,2 C 7,2 C 84 % 1017,4 hPa 0,0 l/m 2 min 0 min 200 W/m 6,4 km/h (2 Bft) 100,00 %
25.11.2022 14:24 11,6 C 12,2 C 7,2 C 84 % 1017,5 hPa 0,0 l/m 2 min 0 min 178 W/m 6,4 km/h (2 Bft) 100,00 %
25.11.2022 14:26 11,6 C 12,2 C 7,2 C 84 % 1017,4 hPa 0,0 l/m 2 min 0 min 125 W/m 12,9 km/h (3 Bft) 100,00 %
25.11.2022 14:28 11,6 C 12,2 C 7,2 C 84 % 1017,4 hPa 0,0 l/m 2 min 0 min 152 W/m 12,9 km/h (3 Bft) 97,87 %
25.11.2022 14:30 11,7 C 12,2 C 7,2 C 84 % 1017,4 hPa 0,0 l/m 2 min 0 min 178 W/m 9,7 km/h (2 Bft) 100,00 %
25.11.2022 14:32 11,6 C 12,2 C 7,2 C 83 % 1017,4 hPa 0,0 l/m 2 min 0 min 154 W/m 16,1 km/h (3 Bft) 100,00 %
25.11.2022 14:34 11,6 C 11,7 C 7,2 C 83 % 1017,5 hPa 0,0 l/m 2 min 0 min 124 W/m 6,4 km/h (2 Bft) 97,83 %
25.11.2022 14:36 11,6 C 11,7 C 7,2 C 83 % 1017,5 hPa 0,0 l/m 2 min 0 min 134 W/m 12,9 km/h (3 Bft) 100,00 %
25.11.2022 14:38 11,6 C 12,2 C 7,2 C 83 % 1017,6 hPa 0,0 l/m 2 min 0 min 162 W/m 12,9 km/h (3 Bft) 100,00 %
25.11.2022 14:40 11,6 C 12,8 C 7,2 C 83 % 1017,6 hPa 0,0 l/m 2 min 0 min 151 W/m 6,4 km/h (2 Bft) 100,00 %
25.11.2022 14:42 11,6 C 12,8 C 7,2 C 83 % 1017,6 hPa 0,0 l/m 2 min 0 min 122 W/m 6,4 km/h (2 Bft) 100,00 %
25.11.2022 14:44 11,6 C 13,3 C 7,2 C 83 % 1017,7 hPa 0,0 l/m 2 min 0 min 146 W/m 6,4 km/h (2 Bft) 100,00 %
25.11.2022 14:46 11,6 C 12,8 C 7,2 C 83 % 1017,7 hPa 0,0 l/m 2 min 0 min 148 W/m 12,9 km/h (3 Bft) 100,00 %
25.11.2022 14:48 11,6 C 12,2 C 7,2 C 82 % 1017,8 hPa 0,0 l/m 2 min 0 min 150 W/m 12,9 km/h (3 Bft) 100,00 %
25.11.2022 14:50 11,6 C 11,7 C 7,2 C 83 % 1017,8 hPa 0,0 l/m 2 min 0 min 145 W/m 16,1 km/h (3 Bft) 100,00 %
25.11.2022 14:52 11,6 C 11,1 C 7,2 C 83 % 1017,8 hPa 0,0 l/m 2 min 0 min 123 W/m 9,7 km/h (2 Bft) 100,00 %
25.11.2022 14:54 11,6 C 11,1 C 7,2 C 83 % 1017,8 hPa 0,0 l/m 2 min 0 min 113 W/m 6,4 km/h (2 Bft) 97,87 %
25.11.2022 14:56 11,5 C 11,1 C 7,2 C 83 % 1017,9 hPa 0,0 l/m 2 min 0 min 115 W/m 12,9 km/h (3 Bft) 97,87 %
25.11.2022 14:58 11,5 C 11,1 C 7,2 C 83 % 1017,8 hPa 0,0 l/m 2 min 0 min 104 W/m 6,4 km/h (2 Bft) 100,00 %
25.11.2022 15:00 11,4 C 10,6 C 7,2 C 83 % 1017,8 hPa 0,0 l/m 2 min 0 min 113 W/m 6,4 km/h (2 Bft) 100,00 %
25.11.2022 15:02 11,4 C 10,6 C 7,2 C 83 % 1017,9 hPa 0,0 l/m 0 min 0 min 64 W/m 9,7 km/h (2 Bft) 97,87 %
25.11.2022 15:04 11,4 C 10,6 C 7,2 C 83 % 1017,9 hPa 0,0 l/m 0 min 0 min 67 W/m 6,4 km/h (2 Bft) 96,00 %
25.11.2022 15:06 11,4 C 10,6 C 7,2 C 83 % 1018,0 hPa 0,0 l/m 0 min 0 min 54 W/m 12,9 km/h (3 Bft) 100,00 %
25.11.2022 15:08 11,3 C 10,6 C 7,2 C 83 % 1018,0 hPa 0,0 l/m 0 min 0 min 50 W/m 16,1 km/h (3 Bft) 100,00 %
25.11.2022 15:10 11,3 C 10,6 C 7,2 C 83 % 1018,0 hPa 0,0 l/m 0 min 0 min 47 W/m 19,3 km/h (3 Bft) 100,00 %
25.11.2022 15:12 11,3 C 10,6 C 7,2 C 83 % 1018,0 hPa 0,0 l/m 0 min 0 min 45 W/m 6,4 km/h (2 Bft) 97,87 %
25.11.2022 15:14 11,3 C 10,6 C 7,2 C 83 % 1018,0 hPa 0,0 l/m 0 min 0 min 44 W/m 16,1 km/h (3 Bft) 95,74 %
25.11.2022 15:16 11,3 C 10,6 C 7,2 C 83 % 1018,1 hPa 0,0 l/m 0 min 0 min 43 W/m 6,4 km/h (2 Bft) 95,74 %
25.11.2022 15:18 11,2 C 10,6 C 7,2 C 83 % 1018,1 hPa 0,0 l/m 0 min 0 min 50 W/m 12,9 km/h (3 Bft) 97,87 %
25.11.2022 15:20 11,2 C 10,6 C 7,2 C 84 % 1018,0 hPa 0,0 l/m 0 min 0 min 60 W/m 6,4 km/h (2 Bft) 95,74 %
25.11.2022 15:22 11,2 C 10,6 C 7,2 C 84 % 1018,0 hPa 0,0 l/m 0 min 0 min 62 W/m 12,9 km/h (3 Bft) 95,65 %
25.11.2022 15:24 11,2 C 10,6 C 7,2 C 84 % 1018,1 hPa 0,0 l/m 0 min 0 min 62 W/m 3,2 km/h (1 Bft) 95,74 %
25.11.2022 15:26 11,2 C 10,6 C 7,2 C 84 % 1018,1 hPa 0,0 l/m 0 min 0 min 59 W/m 6,4 km/h (2 Bft) 93,62 %
25.11.2022 15:28 11,2 C 10,6 C 7,2 C 84 % 1018,1 hPa 0,0 l/m 0 min 0 min 54 W/m 6,4 km/h (2 Bft) 95,74 %
25.11.2022 15:30 11,2 C 10,6 C 7,2 C 84 % 1018,0 hPa 0,0 l/m 0 min 0 min 56 W/m 0,0 km/h (0 Bft) 95,74 %
25.11.2022 15:32 11,3 C 11,1 C 7,2 C 84 % 1018,2 hPa 0,0 l/m 2 min 0 min 67 W/m 9,7 km/h (2 Bft) 95,74 %
25.11.2022 15:34 11,3 C 11,1 C 7,2 C 84 % 1018,1 hPa 0,0 l/m 2 min 0 min 64 W/m 16,1 km/h (3 Bft) 93,48 %
25.11.2022 15:36 11,3 C 11,1 C 7,2 C 84 % 1018,2 hPa 0,0 l/m 2 min 0 min 62 W/m 12,9 km/h (3 Bft) 93,62 %
25.11.2022 15:38 11,3 C 11,1 C 7,2 C 84 % 1018,1 hPa 0,0 l/m 2 min 0 min 63 W/m 6,4 km/h (2 Bft) 95,74 %
25.11.2022 15:40 11,3 C 11,1 C 7,2 C 84 % 1018,2 hPa 0,0 l/m 2 min 0 min 58 W/m 12,9 km/h (3 Bft) 95,74 %
25.11.2022 15:42 11,3 C 10,6 C 7,2 C 84 % 1018,3 hPa 0,0 l/m 0 min 0 min 43 W/m 12,9 km/h (3 Bft) 93,62 %
25.11.2022 15:44 11,3 C 10,6 C 7,2 C 84 % 1018,3 hPa 0,0 l/m 0 min 0 min 35 W/m 12,9 km/h (3 Bft) 95,74 %
25.11.2022 15:46 11,2 C 10,6 C 7,2 C 84 % 1018,3 hPa 0,0 l/m 0 min 0 min 32 W/m 12,9 km/h (3 Bft) 95,65 %
25.11.2022 15:48 11,2 C 10,6 C 7,2 C 84 % 1018,4 hPa 0,0 l/m 0 min 0 min 29 W/m 12,9 km/h (3 Bft) 95,74 %
25.11.2022 15:50 11,2 C 10,6 C 7,2 C 84 % 1018,4 hPa 0,0 l/m 0 min 0 min 28 W/m 6,4 km/h (2 Bft) 97,87 %
25.11.2022 15:52 11,1 C 10,0 C 6,7 C 84 % 1018,5 hPa 0,0 l/m 0 min 0 min 28 W/m 9,7 km/h (2 Bft) 95,74 %
25.11.2022 15:54 11,1 C 10,0 C 6,7 C 84 % 1018,5 hPa 0,0 l/m 0 min 0 min 27 W/m 3,2 km/h (1 Bft) 95,74 %
25.11.2022 15:56 11,1 C 10,0 C 6,7 C 84 % 1018,5 hPa 0,0 l/m 0 min 0 min 24 W/m 6,4 km/h (2 Bft) 97,83 %
25.11.2022 15:58 11,0 C 10,0 C 6,7 C 84 % 1018,5 hPa 0,0 l/m 0 min 0 min 22 W/m 6,4 km/h (2 Bft) 93,62 %
25.11.2022 16:00 10,9 C 10,0 C 6,7 C 84 % 1018,5 hPa 0,0 l/m 0 min 0 min 21 W/m 6,4 km/h (2 Bft) 97,87 %
25.11.2022 16:02 10,9 C 10,0 C 6,7 C 84 % 1018,6 hPa 0,0 l/m 0 min 0 min 20 W/m 3,2 km/h (1 Bft) 97,87 %
25.11.2022 16:04 10,9 C 10,0 C 6,7 C 85 % 1018,5 hPa 0,0 l/m 0 min 0 min 19 W/m 6,4 km/h (2 Bft) 93,75 %
25.11.2022 16:06 10,8 C 10,0 C 6,7 C 85 % 1018,6 hPa 0,0 l/m 0 min 0 min 18 W/m 6,4 km/h (2 Bft) 97,87 %
25.11.2022 16:08 10,8 C 9,4 C 6,7 C 85 % 1018,6 hPa 0,0 l/m 0 min 0 min 16 W/m 3,2 km/h (1 Bft) 97,83 %
25.11.2022 16:10 10,8 C 9,4 C 6,1 C 85 % 1018,7 hPa 0,0 l/m 0 min 0 min 16 W/m 6,4 km/h (2 Bft) 93,62 %
25.11.2022 16:12 10,7 C 9,4 C 6,1 C 85 % 1018,7 hPa 0,0 l/m 0 min 0 min 15 W/m 3,2 km/h (1 Bft) 93,62 %
25.11.2022 16:14 10,7 C 9,4 C 6,1 C 85 % 1018,7 hPa 0,0 l/m 0 min 0 min 13 W/m 3,2 km/h (1 Bft) 93,62 %
25.11.2022 16:16 10,7 C 9,4 C 6,1 C 85 % 1018,7 hPa 0,0 l/m 0 min 0 min 12 W/m 3,2 km/h (1 Bft) 95,74 %
25.11.2022 16:18 10,6 C 9,4 C 6,1 C 85 % 1018,8 hPa 0,0 l/m 0 min 0 min 11 W/m 6,4 km/h (2 Bft) 97,87 %
25.11.2022 16:20 10,6 C 9,4 C 5,6 C 85 % 1018,8 hPa 0,0 l/m 0 min 0 min 11 W/m 6,4 km/h (2 Bft) 97,83 %
25.11.2022 16:22 10,6 C 9,4 C 6,1 C 85 % 1018,9 hPa 0,0 l/m 0 min 0 min 9 W/m 0,0 km/h (0 Bft) 97,87 %
25.11.2022 16:24 10,5 C 8,9 C 5,6 C 85 % 1018,9 hPa 0,0 l/m 0 min 0 min 9 W/m 0,0 km/h (0 Bft) 95,74 %
25.11.2022 16:26 10,5 C 8,9 C 5,6 C 86 % 1019,0 hPa 0,0 l/m 0 min 0 min 7 W/m 0,0 km/h (0 Bft) 97,87 %
25.11.2022 16:28 10,4 C 8,9 C 5,6 C 86 % 1019,0 hPa 0,0 l/m 0 min 0 min 5 W/m 0,0 km/h (0 Bft) 95,74 %
25.11.2022 16:30 10,4 C 9,4 C 5,6 C 86 % 1019,0 hPa 0,0 l/m 0 min 0 min 5 W/m 6,4 km/h (2 Bft) 97,87 %
25.11.2022 16:32 10,4 C 9,4 C 5,6 C 86 % 1019,1 hPa 0,0 l/m 0 min 0 min 2 W/m 6,4 km/h (2 Bft) 97,83 %
25.11.2022 16:34 10,3 C 9,4 C 5,6 C 86 % 1019,1 hPa 0,0 l/m 0 min 0 min 0 W/m 6,4 km/h (2 Bft) 95,74 %
25.11.2022 16:36 10,3 C 9,4 C 5,6 C 86 % 1019,1 hPa 0,0 l/m 0 min 0 min 0 W/m 6,4 km/h (2 Bft) 97,87 %
25.11.2022 16:38 10,3 C 9,4 C 5,6 C 86 % 1019,1 hPa 0,0 l/m 0 min 0 min 0 W/m 6,4 km/h (2 Bft) 97,87 %
25.11.2022 16:40 10,3 C 9,4 C 6,1 C 86 % 1019,1 hPa 0,0 l/m 0 min 0 min 0 W/m 6,4 km/h (2 Bft) 97,87 %
25.11.2022 16:42 10,3 C 9,4 C 6,1 C 86 % 1019,1 hPa 0,0 l/m 0 min 0 min 0 W/m 12,9 km/h (3 Bft) 95,74 %
25.11.2022 16:44 10,3 C 9,4 C 6,1 C 86 % 1019,2 hPa 0,0 l/m 0 min 0 min 0 W/m 9,7 km/h (2 Bft) 97,83 %
25.11.2022 16:46 10,3 C 9,4 C 6,1 C 87 % 1019,2 hPa 0,0 l/m 0 min 0 min 0 W/m 6,4 km/h (2 Bft) 100,00 %
25.11.2022 16:48 10,3 C 9,4 C 6,1 C 87 % 1019,3 hPa 0,0 l/m 0 min 0 min 0 W/m 6,4 km/h (2 Bft) 97,87 %
25.11.2022 16:50 10,3 C 9,4 C 6,1 C 87 % 1019,3 hPa 0,0 l/m 0 min 0 min 0 W/m 12,9 km/h (3 Bft) 97,87 %
25.11.2022 16:52 10,3 C 10,0 C 6,1 C 87 % 1019,3 hPa 0,0 l/m 0 min 0 min 0 W/m 12,9 km/h (3 Bft) 100,00 %
25.11.2022 16:54 10,3 C 10,0 C 6,1 C 87 % 1019,4 hPa 0,0 l/m 0 min 0 min 0 W/m 6,4 km/h (2 Bft) 97,87 %
25.11.2022 16:56 10,3 C 10,0 C 6,1 C 87 % 1019,4 hPa 0,0 l/m 0 min 0 min 0 W/m 9,7 km/h (2 Bft) 97,83 %
25.11.2022 16:58 10,4 C 10,0 C 6,1 C 87 % 1019,4 hPa 0,0 l/m 0 min 0 min 0 W/m 6,4 km/h (2 Bft) 100,00 %
25.11.2022 17:00 10,4 C 10,0 C 6,1 C 87 % 1019,5 hPa 0,0 l/m 0 min 0 min 0 W/m 6,4 km/h (2 Bft) 100,00 %
25.11.2022 17:02 10,4 C 10,0 C 6,1 C 87 % 1019,5 hPa 0,0 l/m 0 min 0 min 0 W/m 6,4 km/h (2 Bft) 100,00 %
25.11.2022 17:04 10,4 C 10,0 C 6,1 C 87 % 1019,5 hPa 0,0 l/m 0 min 0 min 0 W/m 6,4 km/h (2 Bft) 97,87 %
25.11.2022 17:06 10,4 C 10,0 C 6,1 C 87 % 1019,5 hPa 0,0 l/m 0 min 0 min 0 W/m 3,2 km/h (1 Bft) 100,00 %
25.11.2022 17:08 10,4 C 10,0 C 6,1 C 87 % 1019,6 hPa 0,0 l/m 0 min 0 min 0 W/m 3,2 km/h (1 Bft) 100,00 %
25.11.2022 17:10 10,4 C 10,0 C 6,1 C 87 % 1019,6 hPa 0,0 l/m 0 min 0 min 0 W/m 3,2 km/h (1 Bft) 100,00 %
25.11.2022 17:12 10,4 C 9,4 C 6,1 C 87 % 1019,6 hPa 0,0 l/m 0 min 0 min 0 W/m 3,2 km/h (1 Bft) 100,00 %
25.11.2022 17:14 10,4 C 10,0 C 6,1 C 87 % 1019,6 hPa 0,0 l/m 0 min 0 min 0 W/m 3,2 km/h (1 Bft) 100,00 %
25.11.2022 17:16 10,4 C 10,0 C 6,1 C 87 % 1019,6 hPa 0,0 l/m 0 min 0 min 0 W/m 6,4 km/h (2 Bft) 97,87 %
25.11.2022 17:18 10,4 C 9,4 C 6,1 C 87 % 1019,7 hPa 0,0 l/m 0 min 0 min 0 W/m 6,4 km/h (2 Bft) 97,87 %
25.11.2022 17:20 10,4 C 9,4 C 6,1 C 87 % 1019,7 hPa 0,0 l/m 0 min 0 min 0 W/m 3,2 km/h (1 Bft) 100,00 %
25.11.2022 17:22 10,4 C 9,4 C 6,1 C 87 % 1019,8 hPa 0,0 l/m 0 min 0 min 0 W/m 3,2 km/h (1 Bft) 93,62 %
25.11.2022 17:24 10,4 C 10,0 C 6,1 C 87 % 1019,8 hPa 0,0 l/m 0 min 0 min 0 W/m 3,2 km/h (1 Bft) 95,74 %
25.11.2022 17:26 10,4 C 9,4 C 6,1 C 87 % 1019,8 hPa 0,0 l/m 0 min 0 min 0 W/m 6,4 km/h (2 Bft) 97,87 %
25.11.2022 17:28 10,4 C 9,4 C 6,1 C 87 % 1019,9 hPa 0,0 l/m 0 min 0 min 0 W/m 3,2 km/h (1 Bft) 97,87 %
25.11.2022 17:30 10,4 C 9,4 C 6,1 C 87 % 1019,9 hPa 0,0 l/m 0 min 0 min 0 W/m 3,2 km/h (1 Bft) 95,74 %
25.11.2022 17:32 10,4 C 9,4 C 6,1 C 87 % 1019,9 hPa 0,0 l/m 0 min 0 min 0 W/m 6,4 km/h (2 Bft) 95,65 %
25.11.2022 17:34 10,4 C 9,4 C 6,1 C 87 % 1019,9 hPa 0,0 l/m 0 min 0 min 0 W/m 3,2 km/h (1 Bft) 95,74 %
25.11.2022 17:36 10,4 C 9,4 C 6,1 C 87 % 1020,0 hPa 0,0 l/m 0 min 0 min 0 W/m 3,2 km/h (1 Bft) 95,74 %
25.11.2022 17:38 10,4 C 9,4 C 6,1 C 87 % 1020,0 hPa 0,0 l/m 0 min 0 min 0 W/m 3,2 km/h (1 Bft) 95,74 %
25.11.2022 17:40 10,4 C 9,4 C 6,1 C 87 % 1020,0 hPa 0,0 l/m 0 min 0 min 0 W/m 3,2 km/h (1 Bft) 95,74 %
25.11.2022 17:42 10,3 C 9,4 C 6,1 C 87 % 1020,1 hPa 0,0 l/m 0 min 0 min 0 W/m 3,2 km/h (1 Bft) 95,74 %
25.11.2022 17:44 10,3 C 9,4 C 6,1 C 87 % 1020,1 hPa 0,0 l/m 0 min 0 min 0 W/m 3,2 km/h (1 Bft) 95,65 %
25.11.2022 17:46 10,3 C 9,4 C 6,1 C 87 % 1020,1 hPa 0,0 l/m 0 min 0 min 0 W/m 3,2 km/h (1 Bft) 95,74 %
25.11.2022 17:48 10,3 C 9,4 C 5,6 C 87 % 1020,2 hPa 0,0 l/m 0 min 0 min 0 W/m 6,4 km/h (2 Bft) 95,74 %
25.11.2022 17:50 10,3 C 9,4 C 5,6 C 87 % 1020,2 hPa 0,0 l/m 0 min 0 min 0 W/m 6,4 km/h (2 Bft) 93,62 %
25.11.2022 17:52 10,3 C 8,9 C 5,6 C 87 % 1020,3 hPa 0,0 l/m 0 min 0 min 0 W/m 3,2 km/h (1 Bft) 97,87 %
25.11.2022 17:54 10,2 C 8,9 C 5,6 C 87 % 1020,3 hPa 0,0 l/m 0 min 0 min 0 W/m 3,2 km/h (1 Bft) 97,87 %
25.11.2022 17:56 10,2 C 8,9 C 5,6 C 87 % 1020,3 hPa 0,0 l/m 0 min 0 min 0 W/m 6,4 km/h (2 Bft) 95,65 %
25.11.2022 17:58 10,1 C 8,9 C 5,6 C 87 % 1020,3 hPa 0,0 l/m 0 min 0 min 0 W/m 6,4 km/h (2 Bft) 97,87 %
25.11.2022 18:00 10,1 C 8,9 C 5,6 C 87 % 1020,3 hPa 0,0 l/m 0 min 0 min 0 W/m 6,4 km/h (2 Bft) 97,87 %
25.11.2022 18:02 10,1 C 8,9 C 5,6 C 87 % 1020,4 hPa 0,0 l/m 0 min 0 min 0 W/m 3,2 km/h (1 Bft) 97,87 %
25.11.2022 18:04 10,1 C 8,9 C 5,6 C 87 % 1020,5 hPa 0,0 l/m 0 min 0 min 0 W/m 6,4 km/h (2 Bft) 97,87 %
25.11.2022 18:07 10,0 C 8,9 C 5,6 C 88 % 1020,6 hPa 0,0 l/m 0 min 0 min 0 W/m 9,7 km/h (2 Bft) 97,87 %
25.11.2022 18:10 9,9 C 8,9 C 5,6 C 88 % 1020,7 hPa 0,0 l/m 0 min 0 min 0 W/m 12,9 km/h (3 Bft) 96,43 %
25.11.2022 18:12 9,9 C 8,9 C 5,6 C 88 % 1020,7 hPa 0,0 l/m 0 min 0 min 0 W/m 6,4 km/h (2 Bft) 97,87 %
25.11.2022 18:14 9,8 C 8,9 C 5,6 C 88 % 1020,7 hPa 0,0 l/m 0 min 0 min 0 W/m 9,7 km/h (2 Bft) 97,87 %
25.11.2022 18:16 9,8 C 8,9 C 5,6 C 88 % 1020,7 hPa 0,0 l/m 0 min 0 min 0 W/m 6,4 km/h (2 Bft) 100,00 %
25.11.2022 18:18 9,7 C 8,9 C 5,6 C 88 % 1020,7 hPa 0,0 l/m 0 min 0 min 0 W/m 6,4 km/h (2 Bft) 95,74 %
25.11.2022 18:20 9,7 C 8,9 C 5,6 C 88 % 1020,8 hPa 0,0 l/m 0 min 0 min 0 W/m 3,2 km/h (1 Bft) 100,00 %
25.11.2022 18:22 9,7 C 8,9 C 5,6 C 89 % 1020,8 hPa 0,0 l/m 0 min 0 min 0 W/m 0,0 km/h (0 Bft) 100,00 %
25.11.2022 18:24 9,6 C 8,9 C 5,6 C 89 % 1020,9 hPa 0,0 l/m 0 min 0 min 0 W/m 0,0 km/h (0 Bft) 100,00 %
25.11.2022 18:26 9,6 C 8,9 C 5,6 C 89 % 1020,9 hPa 0,0 l/m 0 min 0 min 0 W/m 3,2 km/h (1 Bft) 100,00 %
25.11.2022 18:28 9,6 C 8,3 C 5,6 C 89 % 1020,9 hPa 0,0 l/m 0 min 0 min 0 W/m 3,2 km/h (1 Bft) 100,00 %
25.11.2022 18:30 9,6 C 8,3 C 5,0 C 89 % 1021,0 hPa 0,0 l/m 0 min 0 min 0 W/m 6,4 km/h (2 Bft) 100,00 %
25.11.2022 18:32 9,6 C 8,3 C 5,0 C 89 % 1021,1 hPa 0,0 l/m 0 min 0 min 0 W/m 6,4 km/h (2 Bft) 100,00 %
25.11.2022 18:34 9,5 C 8,3 C 5,0 C 89 % 1021,1 hPa 0,0 l/m 0 min 0 min 0 W/m 3,2 km/h (1 Bft) 100,00 %
25.11.2022 18:36 9,5 C 8,3 C 5,0 C 89 % 1021,2 hPa 0,0 l/m 0 min 0 min 0 W/m 3,2 km/h (1 Bft) 95,74 %
25.11.2022 18:38 9,4 C 8,3 C 5,0 C 89 % 1021,3 hPa 0,0 l/m 0 min 0 min 0 W/m 3,2 km/h (1 Bft) 100,00 %
25.11.2022 18:40 9,4 C 8,3 C 5,0 C 89 % 1021,3 hPa 0,0 l/m 0 min 0 min 0 W/m 3,2 km/h (1 Bft) 100,00 %
25.11.2022 18:42 9,4 C 8,3 C 5,0 C 89 % 1021,4 hPa 0,0 l/m 0 min 0 min 0 W/m 3,2 km/h (1 Bft) 95,65 %
25.11.2022 18:44 9,4 C 8,3 C 5,0 C 89 % 1021,4 hPa 0,0 l/m 0 min 0 min 0 W/m 3,2 km/h (1 Bft) 100,00 %
25.11.2022 18:46 9,4 C 8,3 C 5,0 C 89 % 1021,4 hPa 0,0 l/m 0 min 0 min 0 W/m 3,2 km/h (1 Bft) 100,00 %
25.11.2022 18:48 9,3 C 8,3 C 5,0 C 89 % 1021,4 hPa 0,0 l/m 0 min 0 min 0 W/m 6,4 km/h (2 Bft) 100,00 %
25.11.2022 18:50 9,3 C 8,3 C 5,0 C 90 % 1021,4 hPa 0,0 l/m 0 min 0 min 0 W/m 6,4 km/h (2 Bft) 97,87 %
25.11.2022 18:52 9,3 C 8,3 C 5,0 C 90 % 1021,5 hPa 0,0 l/m 0 min 0 min 0 W/m 6,4 km/h (2 Bft) 97,87 %
25.11.2022 18:54 9,3 C 8,3 C 5,6 C 90 % 1021,5 hPa 0,0 l/m 0 min 0 min 0 W/m 6,4 km/h (2 Bft) 100,00 %
25.11.2022 18:56 9,3 C 8,3 C 5,6 C 90 % 1021,5 hPa 0,0 l/m 0 min 0 min 0 W/m 9,7 km/h (2 Bft) 100,00 %
25.11.2022 18:58 9,3 C 8,3 C 5,6 C 90 % 1021,5 hPa 0,0 l/m 0 min 0 min 0 W/m 6,4 km/h (2 Bft) 97,87 %
25.11.2022 19:00 9,3 C 8,3 C 5,6 C 90 % 1021,6 hPa 0,0 l/m 0 min 0 min 0 W/m 3,2 km/h (1 Bft) 95,74 %
25.11.2022 19:02 9,3 C 8,3 C 5,6 C 90 % 1021,6 hPa 0,0 l/m 0 min 0 min 0 W/m 6,4 km/h (2 Bft) 97,87 %
25.11.2022 19:04 9,3 C 8,3 C 5,6 C 90 % 1021,7 hPa 0,0 l/m 0 min 0 min 0 W/m 3,2 km/h (1 Bft) 97,92 %
25.11.2022 19:06 9,3 C 8,3 C 5,6 C 90 % 1021,8 hPa 0,0 l/m 0 min 0 min 0 W/m 12,9 km/h (3 Bft) 91,30 %
25.11.2022 19:08 9,3 C 8,3 C 5,6 C 91 % 1021,8 hPa 0,0 l/m 0 min 0 min 0 W/m 3,2 km/h (1 Bft) 95,74 %
25.11.2022 19:10 9,3 C 8,3 C 5,6 C 91 % 1021,8 hPa 0,0 l/m 0 min 0 min 0 W/m 3,2 km/h (1 Bft) 95,74 %
25.11.2022 19:12 9,3 C 8,3 C 5,6 C 91 % 1021,8 hPa 0,0 l/m 0 min 0 min 0 W/m 3,2 km/h (1 Bft) 95,74 %
25.11.2022 19:14 9,3 C 8,3 C 5,6 C 91 % 1021,9 hPa 0,0 l/m 0 min 0 min 0 W/m 6,4 km/h (2 Bft) 91,67 %
25.11.2022 19:16 9,3 C 8,3 C 5,0 C 91 % 1021,9 hPa 0,0 l/m 0 min 0 min 0 W/m 3,2 km/h (1 Bft) 95,74 %
25.11.2022 19:18 9,2 C 8,3 C 5,0 C 91 % 1022,0 hPa 0,0 l/m 0 min 0 min 0 W/m 3,2 km/h (1 Bft) 95,74 %
25.11.2022 19:20 9,2 C 8,3 C 5,0 C 90 % 1022,0 hPa 0,0 l/m 0 min 0 min 0 W/m 3,2 km/h (1 Bft) 93,62 %
25.11.2022 19:22 9,2 C 7,8 C 5,0 C 90 % 1022,0 hPa 0,0 l/m 0 min 0 min 0 W/m 3,2 km/h (1 Bft) 95,65 %
25.11.2022 19:24 9,2 C 7,8 C 5,0 C 90 % 1022,0 hPa 0,0 l/m 0 min 0 min 0 W/m 6,4 km/h (2 Bft) 93,62 %
25.11.2022 19:26 9,2 C 7,8 C 5,0 C 90 % 1022,0 hPa 0,0 l/m 0 min 0 min 0 W/m 0,0 km/h (0 Bft) 95,74 %
25.11.2022 19:28 9,1 C 7,8 C 4,4 C 90 % 1022,1 hPa 0,0 l/m 0 min 0 min 0 W/m 0,0 km/h (0 Bft) 91,49 %
25.11.2022 19:30 9,1 C 7,8 C 4,4 C 90 % 1022,1 hPa 0,0 l/m 0 min 0 min 0 W/m 0,0 km/h (0 Bft) 93,62 %
25.11.2022 19:32 9,1 C 7,8 C 4,4 C 90 % 1022,1 hPa 0,0 l/m 0 min 0 min 0 W/m 0,0 km/h (0 Bft) 95,74 %
25.11.2022 19:34 9,0 C 7,8 C 4,4 C 90 % 1022,1 hPa 0,0 l/m 0 min 0 min 0 W/m 9,7 km/h (2 Bft) 95,65 %
25.11.2022 19:36 9,0 C 7,8 C 4,4 C 90 % 1022,2 hPa 0,0 l/m 0 min 0 min 0 W/m 3,2 km/h (1 Bft) 95,74 %
25.11.2022 19:38 8,9 C 7,8 C 4,4 C 91 % 1022,2 hPa 0,0 l/m 0 min 0 min 0 W/m 3,2 km/h (1 Bft) 95,74 %
25.11.2022 19:40 8,9 C 7,8 C 4,4 C 91 % 1022,2 hPa 0,0 l/m 0 min 0 min 0 W/m 3,2 km/h (1 Bft) 95,74 %
25.11.2022 19:42 8,8 C 7,8 C 4,4 C 91 % 1022,2 hPa 0,0 l/m 0 min 0 min 0 W/m 0,0 km/h (0 Bft) 97,87 %
25.11.2022 19:44 8,8 C 7,8 C 4,4 C 91 % 1022,4 hPa 0,0 l/m 0 min 0 min 0 W/m 3,2 km/h (1 Bft) 97,87 %
25.11.2022 19:46 8,8 C 7,8 C 4,4 C 91 % 1022,4 hPa 0,0 l/m 0 min 0 min 0 W/m 3,2 km/h (1 Bft) 97,83 %
25.11.2022 19:48 8,8 C 7,8 C 4,4 C 91 % 1022,5 hPa 0,0 l/m 0 min 0 min 0 W/m 3,2 km/h (1 Bft) 93,62 %
25.11.2022 19:50 8,8 C 7,8 C 4,4 C 91 % 1022,4 hPa 0,0 l/m 0 min 0 min 0 W/m 6,4 km/h (2 Bft) 100,00 %
25.11.2022 19:52 8,7 C 7,8 C 4,4 C 91 % 1022,5 hPa 0,0 l/m 0 min 0 min 0 W/m 6,4 km/h (2 Bft) 93,62 %
25.11.2022 19:54 8,7 C 7,8 C 4,4 C 91 % 1022,5 hPa 0,0 l/m 0 min 0 min 0 W/m 6,4 km/h (2 Bft) 97,87 %
25.11.2022 19:56 8,7 C 7,8 C 4,4 C 91 % 1022,5 hPa 0,0 l/m 0 min 0 min 0 W/m 6,4 km/h (2 Bft) 95,74 %
25.11.2022 19:58 8,7 C 7,8 C 5,0 C 92 % 1022,5 hPa 0,0 l/m 0 min 0 min 0 W/m 9,7 km/h (2 Bft) 97,83 %
25.11.2022 20:00 8,7 C 7,8 C 5,0 C 92 % 1022,5 hPa 0,0 l/m 0 min 0 min 0 W/m 3,2 km/h (1 Bft) 95,74 %
25.11.2022 20:02 8,8 C 7,8 C 5,0 C 92 % 1022,5 hPa 0,0 l/m 0 min 0 min 0 W/m 9,7 km/h (2 Bft) 97,87 %
25.11.2022 20:04 8,8 C 8,3 C 5,0 C 92 % 1022,6 hPa 0,0 l/m 0 min 0 min 0 W/m 6,4 km/h (2 Bft) 93,88 %
25.11.2022 20:06 8,8 C 8,3 C 5,0 C 92 % 1022,6 hPa 0,0 l/m 0 min 0 min 0 W/m 6,4 km/h (2 Bft) 96,55 %
25.11.2022 20:08 8,8 C 8,3 C 5,0 C 92 % 1022,7 hPa 0,0 l/m 0 min 0 min 0 W/m 6,4 km/h (2 Bft) 94,29 %
25.11.2022 20:10 8,8 C 8,3 C 5,0 C 92 % 1022,7 hPa 0,0 l/m 0 min 0 min 0 W/m 3,2 km/h (1 Bft) 97,87 %
25.11.2022 20:12 8,8 C 7,8 C 5,0 C 92 % 1022,7 hPa 0,0 l/m 0 min 0 min 0 W/m 6,4 km/h (2 Bft) 97,87 %
25.11.2022 20:14 8,8 C 7,8 C 5,0 C 92 % 1022,8 hPa 0,0 l/m 0 min 0 min 0 W/m 6,4 km/h (2 Bft) 97,87 %
25.11.2022 20:16 8,8 C 7,8 C 5,0 C 92 % 1022,8 hPa 0,0 l/m 0 min 0 min 0 W/m 6,4 km/h (2 Bft) 95,74 %
25.11.2022 20:18 8,8 C 7,8 C 5,0 C 92 % 1022,8 hPa 0,0 l/m 0 min 0 min 0 W/m 6,4 km/h (2 Bft) 97,87 %
25.11.2022 20:20 8,8 C 7,8 C 5,0 C 92 % 1022,9 hPa 0,0 l/m 0 min 0 min 0 W/m 3,2 km/h (1 Bft) 97,83 %
25.11.2022 20:22 8,8 C 7,8 C 5,0 C 92 % 1023,0 hPa 0,0 l/m 0 min 0 min 0 W/m 12,9 km/h (3 Bft) 97,87 %
25.11.2022 20:24 8,8 C 7,8 C 5,0 C 92 % 1022,9 hPa 0,0 l/m 0 min 0 min 0 W/m 9,7 km/h (2 Bft) 97,87 %
25.11.2022 20:26 8,8 C 7,8 C 5,0 C 92 % 1023,0 hPa 0,0 l/m 0 min 0 min 0 W/m 0,0 km/h (0 Bft) 95,74 %
25.11.2022 20:28 8,8 C 7,8 C 5,0 C 92 % 1023,0 hPa 0,0 l/m 0 min 0 min 0 W/m 0,0 km/h (0 Bft) 95,74 %
25.11.2022 20:30 8,8 C 7,8 C 5,0 C 92 % 1023,1 hPa 0,0 l/m 0 min 0 min 0 W/m 0,0 km/h (0 Bft) 97,87 %
25.11.2022 20:32 8,8 C 7,8 C 5,0 C 92 % 1023,1 hPa 0,0 l/m 0 min 0 min 0 W/m 0,0 km/h (0 Bft) 100,00 %
25.11.2022 20:34 8,7 C 7,8 C 5,0 C 92 % 1023,1 hPa 0,0 l/m 0 min 0 min 0 W/m 0,0 km/h (0 Bft) 97,87 %
25.11.2022 20:36 8,7 C 7,8 C 5,0 C 92 % 1023,1 hPa 0,0 l/m 0 min 0 min 0 W/m 0,0 km/h (0 Bft) 100,00 %
25.11.2022 20:38 8,7 C 7,8 C 5,0 C 92 % 1023,2 hPa 0,0 l/m 0 min 0 min 0 W/m 0,0 km/h (0 Bft) 100,00 %
25.11.2022 20:40 8,7 C 7,8 C 5,0 C 92 % 1023,2 hPa 0,0 l/m 0 min 0 min 0 W/m 12,9 km/h (3 Bft) 100,00 %
25.11.2022 20:42 8,7 C 7,8 C 4,4 C 92 % 1023,2 hPa 0,0 l/m 0 min 0 min 0 W/m 6,4 km/h (2 Bft) 100,00 %
25.11.2022 20:44 8,6 C 7,2 C 4,4 C 92 % 1023,2 hPa 0,0 l/m 0 min 0 min 0 W/m 3,2 km/h (1 Bft) 100,00 %
25.11.2022 20:46 8,6 C 7,2 C 4,4 C 92 % 1023,2 hPa 0,0 l/m 0 min 0 min 0 W/m 3,2 km/h (1 Bft) 100,00 %
25.11.2022 20:48 8,6 C 7,2 C 4,4 C 92 % 1023,3 hPa 0,0 l/m 0 min 0 min 0 W/m 9,7 km/h (2 Bft) 100,00 %
25.11.2022 20:50 8,6 C 7,2 C 4,4 C 93 % 1023,3 hPa 0,0 l/m 0 min 0 min 0 W/m 6,4 km/h (2 Bft) 97,87 %
25.11.2022 20:52 8,5 C 7,2 C 4,4 C 92 % 1023,3 hPa 0,0 l/m 0 min 0 min 0 W/m 3,2 km/h (1 Bft) 97,87 %
25.11.2022 20:54 8,5 C 7,2 C 4,4 C 92 % 1023,3 hPa 0,0 l/m 0 min 0 min 0 W/m 3,2 km/h (1 Bft) 100,00 %
25.11.2022 20:56 8,4 C 7,2 C 4,4 C 92 % 1023,4 hPa 0,0 l/m 0 min 0 min 0 W/m 9,7 km/h (2 Bft) 97,83 %
25.11.2022 20:58 8,4 C 7,2 C 4,4 C 92 % 1023,4 hPa 0,0 l/m 0 min 0 min 0 W/m 6,4 km/h (2 Bft) 97,87 %
25.11.2022 21:00 8,4 C 7,2 C 4,4 C 92 % 1023,4 hPa 0,0 l/m 0 min 0 min 0 W/m 6,4 km/h (2 Bft) 97,87 %
25.11.2022 21:02 8,3 C 7,2 C 4,4 C 93 % 1023,4 hPa 0,0 l/m 0 min 0 min 0 W/m 6,4 km/h (2 Bft) 97,87 %
25.11.2022 21:04 8,3 C 7,2 C 4,4 C 93 % 1023,5 hPa 0,0 l/m 0 min 0 min 0 W/m 6,4 km/h (2 Bft) 97,87 %
25.11.2022 21:06 8,3 C 7,2 C 4,4 C 93 % 1023,6 hPa 0,0 l/m 0 min 0 min 0 W/m 9,7 km/h (2 Bft) 98,28 %
25.11.2022 21:08 8,3 C 7,2 C 4,4 C 93 % 1023,6 hPa 0,0 l/m 0 min 0 min 0 W/m 6,4 km/h (2 Bft) 97,14 %
25.11.2022 21:10 8,3 C 7,2 C 4,4 C 93 % 1023,6 hPa 0,0 l/m 0 min 0 min 0 W/m 3,2 km/h (1 Bft) 97,87 %
25.11.2022 21:12 8,2 C 7,2 C 4,4 C 93 % 1023,6 hPa 0,0 l/m 0 min 0 min 0 W/m 3,2 km/h (1 Bft) 97,87 %
25.11.2022 21:14 8,2 C 7,2 C 4,4 C 93 % 1023,6 hPa 0,0 l/m 0 min 0 min 0 W/m 3,2 km/h (1 Bft) 97,87 %
25.11.2022 21:16 8,2 C 7,2 C 4,4 C 93 % 1023,7 hPa 0,0 l/m 0 min 0 min 0 W/m 3,2 km/h (1 Bft) 97,87 %
25.11.2022 21:18 8,2 C 6,7 C 3,9 C 93 % 1023,7 hPa 0,0 l/m 0 min 0 min 0 W/m 3,2 km/h (1 Bft) 97,87 %
25.11.2022 21:20 8,2 C 6,7 C 3,9 C 93 % 1023,8 hPa 0,0 l/m 0 min 0 min 0 W/m 3,2 km/h (1 Bft) 97,83 %
25.11.2022 21:22 8,1 C 6,7 C 3,9 C 93 % 1023,8 hPa 0,0 l/m 0 min 0 min 0 W/m 3,2 km/h (1 Bft) 95,74 %
25.11.2022 21:24 8,1 C 6,7 C 3,9 C 93 % 1023,9 hPa 0,0 l/m 0 min 0 min 0 W/m 3,2 km/h (1 Bft) 97,87 %
25.11.2022 21:26 8,1 C 6,7 C 3,9 C 93 % 1023,9 hPa 0,0 l/m 0 min 0 min 0 W/m 3,2 km/h (1 Bft) 100,00 %
25.11.2022 21:28 8,0 C 6,7 C 3,9 C 93 % 1023,9 hPa 0,0 l/m 0 min 0 min 0 W/m 3,2 km/h (1 Bft) 93,62 %
25.11.2022 21:30 7,9 C 6,7 C 3,9 C 93 % 1023,9 hPa 0,0 l/m 0 min 0 min 0 W/m 3,2 km/h (1 Bft) 97,87 %
25.11.2022 21:32 7,9 C 6,7 C 3,9 C 93 % 1024,0 hPa 0,0 l/m 0 min 0 min 0 W/m 3,2 km/h (1 Bft) 97,83 %
25.11.2022 21:34 7,9 C 6,7 C 3,9 C 93 % 1024,0 hPa 0,0 l/m 0 min 0 min 0 W/m 3,2 km/h (1 Bft) 97,87 %
25.11.2022 21:36 7,8 C 6,7 C 3,9 C 93 % 1024,0 hPa 0,0 l/m 0 min 0 min 0 W/m 3,2 km/h (1 Bft) 100,00 %
25.11.2022 21:38 7,8 C 6,7 C 3,9 C 93 % 1024,0 hPa 0,0 l/m 0 min 0 min 0 W/m 3,2 km/h (1 Bft) 100,00 %
25.11.2022 21:40 7,8 C 6,7 C 3,9 C 93 % 1024,1 hPa 0,0 l/m 0 min 0 min 0 W/m 3,2 km/h (1 Bft) 97,87 %
25.11.2022 21:42 7,8 C 6,7 C 3,9 C 93 % 1024,1 hPa 0,0 l/m 0 min 0 min 0 W/m 3,2 km/h (1 Bft) 100,00 %
25.11.2022 21:44 7,8 C 6,7 C 3,9 C 94 % 1024,1 hPa 0,0 l/m 0 min 0 min 0 W/m 3,2 km/h (1 Bft) 97,83 %
25.11.2022 21:46 7,7 C 6,7 C 3,9 C 94 % 1024,1 hPa 0,0 l/m 0 min 0 min 0 W/m 3,2 km/h (1 Bft) 97,87 %
25.11.2022 21:48 7,7 C 6,7 C 3,9 C 94 % 1024,2 hPa 0,0 l/m 0 min 0 min 0 W/m 0,0 km/h (0 Bft) 97,87 %
25.11.2022 21:50 7,7 C 6,7 C 3,3 C 94 % 1024,2 hPa 0,0 l/m 0 min 0 min 0 W/m 0,0 km/h (0 Bft) 100,00 %
25.11.2022 21:52 7,7 C 6,1 C 3,3 C 93 % 1024,2 hPa 0,0 l/m 0 min 0 min 0 W/m 0,0 km/h (0 Bft) 97,87 %
25.11.2022 21:54 7,6 C 6,1 C 3,3 C 93 % 1024,3 hPa 0,0 l/m 0 min 0 min 0 W/m 0,0 km/h (0 Bft) 100,00 %
25.11.2022 21:56 7,6 C 6,1 C 3,3 C 93 % 1024,3 hPa 0,0 l/m 0 min 0 min 0 W/m 0,0 km/h (0 Bft) 97,83 %
25.11.2022 21:58 7,6 C 6,1 C 3,3 C 94 % 1024,3 hPa 0,0 l/m 0 min 0 min 0 W/m 3,2 km/h (1 Bft) 93,62 %
25.11.2022 22:00 7,6 C 6,1 C 3,3 C 94 % 1024,4 hPa 0,0 l/m 0 min 0 min 0 W/m 3,2 km/h (1 Bft) 100,00 %
25.11.2022 22:02 7,5 C 6,1 C 3,3 C 94 % 1024,4 hPa 0,0 l/m 0 min 0 min 0 W/m 3,2 km/h (1 Bft) 100,00 %
25.11.2022 22:04 7,4 C 6,1 C 3,3 C 94 % 1024,4 hPa 0,0 l/m 0 min 0 min 0 W/m 3,2 km/h (1 Bft) 95,74 %
25.11.2022 22:06 7,4 C 6,1 C 3,3 C 94 % 1024,4 hPa 0,0 l/m 0 min 0 min 0 W/m 3,2 km/h (1 Bft) 98,28 %
25.11.2022 22:08 7,4 C 6,1 C 3,3 C 94 % 1024,4 hPa 0,0 l/m 0 min 0 min 0 W/m 3,2 km/h (1 Bft) 97,14 %
25.11.2022 22:10 7,4 C 6,1 C 3,3 C 94 % 1024,4 hPa 0,0 l/m 0 min 0 min 0 W/m 3,2 km/h (1 Bft) 95,74 %
25.11.2022 22:12 7,3 C 6,1 C 3,3 C 94 % 1024,5 hPa 0,0 l/m 0 min 0 min 0 W/m 3,2 km/h (1 Bft) 95,74 %
25.11.2022 22:14 7,3 C 6,1 C 3,3 C 94 % 1024,6 hPa 0,0 l/m 0 min 0 min 0 W/m 0,0 km/h (0 Bft) 95,74 %
25.11.2022 22:16 7,3 C 6,1 C 3,3 C 94 % 1024,6 hPa 0,0 l/m 0 min 0 min 0 W/m 6,4 km/h (2 Bft) 93,62 %
25.11.2022 22:18 7,3 C 6,1 C 3,3 C 94 % 1024,6 hPa 0,0 l/m 0 min 0 min 0 W/m 0,0 km/h (0 Bft) 95,74 %
25.11.2022 22:20 7,2 C 6,1 C 3,3 C 94 % 1024,6 hPa 0,0 l/m 0 min 0 min 0 W/m 3,2 km/h (1 Bft) 95,65 %
25.11.2022 22:22 7,2 C 6,1 C 3,3 C 94 % 1024,6 hPa 0,0 l/m 0 min 0 min 0 W/m 0,0 km/h (0 Bft) 91,49 %
25.11.2022 22:24 7,2 C 6,1 C 3,3 C 94 % 1024,6 hPa 0,0 l/m 0 min 0 min 0 W/m 3,2 km/h (1 Bft) 93,62 %
25.11.2022 22:26 7,2 C 6,1 C 3,3 C 94 % 1024,6 hPa 0,0 l/m 0 min 0 min 0 W/m 0,0 km/h (0 Bft) 95,74 %
25.11.2022 22:28 7,1 C 6,1 C 3,3 C 94 % 1024,7 hPa 0,0 l/m 0 min 0 min 0 W/m 6,4 km/h (2 Bft) 93,62 %
25.11.2022 22:30 7,1 C 6,1 C 3,3 C 94 % 1024,7 hPa 0,0 l/m 0 min 0 min 0 W/m 3,2 km/h (1 Bft) 93,62 %
25.11.2022 22:32 7,1 C 6,1 C 3,3 C 94 % 1024,7 hPa 0,0 l/m 0 min 0 min 0 W/m 0,0 km/h (0 Bft) 95,65 %
25.11.2022 22:34 7,1 C 6,1 C 3,3 C 94 % 1024,8 hPa 0,0 l/m 0 min 0 min 0 W/m 3,2 km/h (1 Bft) 93,62 %
25.11.2022 22:36 7,1 C 6,1 C 3,3 C 94 % 1024,8 hPa 0,0 l/m 0 min 0 min 0 W/m 3,2 km/h (1 Bft) 91,49 %
25.11.2022 22:38 7,0 C 6,1 C 3,3 C 94 % 1024,8 hPa 0,0 l/m 0 min 0 min 0 W/m 6,4 km/h (2 Bft) 95,74 %
25.11.2022 22:40 7,0 C 6,1 C 3,3 C 94 % 1024,8 hPa 0,0 l/m 0 min 0 min 0 W/m 3,2 km/h (1 Bft) 93,62 %
25.11.2022 22:42 6,9 C 5,6 C 3,3 C 95 % 1024,8 hPa 0,0 l/m 0 min 0 min 0 W/m 3,2 km/h (1 Bft) 97,87 %
25.11.2022 22:44 6,9 C 5,6 C 3,3 C 95 % 1024,8 hPa 0,0 l/m 0 min 0 min 0 W/m 0,0 km/h (0 Bft) 95,65 %
25.11.2022 22:46 6,9 C 5,6 C 3,3 C 95 % 1024,9 hPa 0,0 l/m 0 min 0 min 0 W/m 3,2 km/h (1 Bft) 95,74 %
25.11.2022 22:48 6,9 C 5,6 C 3,3 C 95 % 1024,9 hPa 0,0 l/m 0 min 0 min 0 W/m 3,2 km/h (1 Bft) 95,74 %
25.11.2022 22:50 6,9 C 5,6 C 3,3 C 95 % 1025,0 hPa 0,0 l/m 0 min 0 min 0 W/m 3,2 km/h (1 Bft) 95,74 %
25.11.2022 22:52 6,8 C 5,6 C 3,3 C 95 % 1025,0 hPa 0,0 l/m 0 min 0 min 0 W/m 6,4 km/h (2 Bft) 95,74 %
25.11.2022 22:54 6,9 C 5,6 C 3,3 C 95 % 1025,0 hPa 0,0 l/m 0 min 0 min 0 W/m 3,2 km/h (1 Bft) 95,65 %
25.11.2022 22:56 6,8 C 5,6 C 3,3 C 95 % 1025,0 hPa 0,0 l/m 0 min 0 min 0 W/m 3,2 km/h (1 Bft) 93,62 %
25.11.2022 22:58 6,8 C 5,6 C 3,3 C 95 % 1025,1 hPa 0,0 l/m 0 min 0 min 0 W/m 3,2 km/h (1 Bft) 93,62 %
25.11.2022 23:00 6,8 C 5,6 C 3,3 C 95 % 1025,0 hPa 0,0 l/m 0 min 0 min 0 W/m 3,2 km/h (1 Bft) 95,74 %
25.11.2022 23:02 6,8 C 5,6 C 3,3 C 95 % 1025,1 hPa 0,0 l/m 0 min 0 min 0 W/m 3,2 km/h (1 Bft) 95,74 %
25.11.2022 23:04 6,8 C 5,6 C 3,3 C 95 % 1025,1 hPa 0,0 l/m 0 min 0 min 0 W/m 3,2 km/h (1 Bft) 95,12 %
25.11.2022 23:06 6,7 C 5,6 C 3,3 C 95 % 1025,1 hPa 0,0 l/m 0 min 0 min 0 W/m 3,2 km/h (1 Bft) 94,83 %
25.11.2022 23:08 6,7 C 5,6 C 3,3 C 95 % 1025,1 hPa 0,0 l/m 0 min 0 min 0 W/m 0,0 km/h (0 Bft) 97,14 %
25.11.2022 23:10 6,7 C 5,6 C 3,3 C 95 % 1025,1 hPa 0,0 l/m 0 min 0 min 0 W/m 0,0 km/h (0 Bft) 96,23 %
25.11.2022 23:12 6,7 C 5,6 C 3,3 C 95 % 1025,1 hPa 0,0 l/m 0 min 0 min 0 W/m 0,0 km/h (0 Bft) 97,87 %
25.11.2022 23:14 6,7 C 5,6 C 3,3 C 95 % 1025,1 hPa 0,0 l/m 0 min 0 min 0 W/m 0,0 km/h (0 Bft) 95,74 %
25.11.2022 23:16 6,7 C 5,6 C 3,3 C 95 % 1025,1 hPa 0,0 l/m 0 min 0 min 0 W/m 0,0 km/h (0 Bft) 100,00 %
25.11.2022 23:18 6,7 C 5,6 C 2,8 C 95 % 1025,1 hPa 0,0 l/m 0 min 0 min 0 W/m 0,0 km/h (0 Bft) 100,00 %
25.11.2022 23:20 6,7 C 5,6 C 2,8 C 95 % 1025,2 hPa 0,0 l/m 0 min 0 min 0 W/m 0,0 km/h (0 Bft) 100,00 %
25.11.2022 23:22 6,7 C 5,6 C 2,8 C 96 % 1025,3 hPa 0,0 l/m 0 min 0 min 0 W/m 0,0 km/h (0 Bft) 97,87 %
25.11.2022 23:24 6,6 C 5,6 C 2,8 C 96 % 1025,2 hPa 0,0 l/m 0 min 0 min 0 W/m 0,0 km/h (0 Bft) 100,00 %
25.11.2022 23:26 6,6 C 5,6 C 2,8 C 95 % 1025,3 hPa 0,0 l/m 0 min 0 min 0 W/m 0,0 km/h (0 Bft) 100,00 %
25.11.2022 23:28 6,6 C 5,6 C 2,8 C 95 % 1025,3 hPa 0,0 l/m 0 min 0 min 0 W/m 0,0 km/h (0 Bft) 97,87 %
25.11.2022 23:30 6,6 C 5,6 C 2,8 C 95 % 1025,3 hPa 0,0 l/m 0 min 0 min 0 W/m 0,0 km/h (0 Bft) 100,00 %
25.11.2022 23:32 6,6 C 5,0 C 2,2 C 96 % 1025,4 hPa 0,0 l/m 0 min 0 min 0 W/m 0,0 km/h (0 Bft) 100,00 %
25.11.2022 23:34 6,5 C 5,6 C 2,8 C 96 % 1025,4 hPa 0,0 l/m 0 min 0 min 0 W/m 0,0 km/h (0 Bft) 100,00 %
25.11.2022 23:36 6,5 C 5,6 C 2,8 C 96 % 1025,4 hPa 0,0 l/m 0 min 0 min 0 W/m 0,0 km/h (0 Bft) 100,00 %
25.11.2022 23:38 6,5 C 5,6 C 2,8 C 96 % 1025,5 hPa 0,0 l/m 0 min 0 min 0 W/m 0,0 km/h (0 Bft) 97,87 %
25.11.2022 23:40 6,5 C 5,6 C 2,8 C 96 % 1025,5 hPa 0,0 l/m 0 min 0 min 0 W/m 0,0 km/h (0 Bft) 100,00 %
25.11.2022 23:42 6,5 C 5,6 C 2,8 C 96 % 1025,5 hPa 0,0 l/m 0 min 0 min 0 W/m 0,0 km/h (0 Bft) 97,87 %
25.11.2022 23:44 6,4 C 5,6 C 2,8 C 96 % 1025,6 hPa 0,0 l/m 0 min 0 min 0 W/m 0,0 km/h (0 Bft) 100,00 %
25.11.2022 23:46 6,4 C 5,6 C 2,8 C 96 % 1025,6 hPa 0,0 l/m 0 min 0 min 0 W/m 0,0 km/h (0 Bft) 74,47 %
25.11.2022 23:48 6,4 C 5,6 C 2,8 C 96 % 1025,6 hPa 0,0 l/m 0 min 0 min 0 W/m 0,0 km/h (0 Bft) 77,14 %
25.11.2022 23:50 6,4 C 5,6 C 2,8 C 96 % 1025,6 hPa 0,0 l/m 0 min 0 min 0 W/m 0,0 km/h (0 Bft) 100,00 %
25.11.2022 23:52 6,4 C 5,6 C 2,8 C 96 % 1025,6 hPa 0,0 l/m 0 min 0 min 0 W/m 0,0 km/h (0 Bft) 97,87 %
25.11.2022 23:54 6,4 C 5,6 C 2,8 C 96 % 1025,7 hPa 0,0 l/m 0 min 0 min 0 W/m 0,0 km/h (0 Bft) 100,00 %
25.11.2022 23:56 6,4 C 5,0 C 2,8 C 96 % 1025,7 hPa 0,0 l/m 0 min 0 min 0 W/m 0,0 km/h (0 Bft) 100,00 %
25.11.2022 23:58 6,3 C 5,0 C 2,8 C 96 % 1025,7 hPa 0,0 l/m 0 min 0 min 0 W/m 0,0 km/h (0 Bft) 100,00 %
_ Min-Zeit 23:58 23:32 23:32 14:48 02:18 - - - - 05:20 08:30
Minimum _ 6,3 C 5,0 C 2,2 C 82 % 1010,9 hPa - - - - 0,0 km/h (0 Bft) 47,50 %
_ Max-Zeit 13:48 13:02 13:54 10:00 23:54 04:48 09:38 04:26 13:26 10:44 00:38
Maximum _ 11,7 C 14,4 C 7,8 C 98 % 1025,7 hPa 0,2 l/m 2 min 2 min 309 W/m 29,0 km/h
S (5 Bft)
100,00 %
Durchschnitt _ 8,8 C 8,2 C 4,8 C 92 % 1016,6 hPa #1,0 l/m #2:56 h #56 min. 96 W/m 9,0 km/h (2 Bft) 97,09 %
© 2022 W. Hausmann